M I D A S
Marine Information and Data Acquisition System
Tripno 1246 of the Zeeleeuw from 2007-04-17 08:41:57 to 2007-04-17 12:48:01
Back to CruiseResearch ActivitiesStationsMapUnderway DataData graphs

EquipmentUnitsComment
TimeDGPSUTC
LatitudeDGPSDM.mWGS84
LongitudeDGPSDM.mWGS84
TemperatureSBE03/SBE38deg celciusITS90
ConductivitySBE21S/mITS90
SalinitySBE21 Practical Salinity Units
ChlorophylAChelsea fluorimeterg/lCalibrated in Aceton
Missing or incorrect values are displayed as -999
Sea surface data collected by the RV Zeeleeuw from 2007-04-17 08:44:07 to 2007-04-17 13:00:31
                                                                                    Next 1000 lines
Time Latitude Longitude Temperature Conductivity Salinity ChlorophylA
2007-04-17 08:44:16 51°13.601 2°56.099 19.3068 0.000256 0.011416 -2.871232
2007-04-17 08:44:22 51°13.601 2°56.098 19.2761 0.000256 0.011416 -2.871232
2007-04-17 08:44:27 51°13.602 2°56.096 19.3016 0.000256 0.011416 -2.871232
2007-04-17 08:44:32 51°13.602 2°56.094 19.3079 0.000256 0.011416 -2.871232
2007-04-17 08:44:37 51°13.603 2°56.091 19.3152 0.000256 0.011416 -2.871232
2007-04-17 08:44:41 51°13.603 2°56.088 19.3332 0.000256 0.011416 -2.871232
2007-04-17 08:44:47 51°13.605 2°56.084 19.3234 0.000256 0.011416 -2.871232
2007-04-17 08:44:52 51°13.606 2°56.079 19.3014 0.000256 0.011416 -2.871232
2007-04-17 08:44:57 51°13.607 2°56.074 19.3199 0.000256 0.011416 -2.871232
2007-04-17 08:45:01 51°13.608 2°56.07 19.3359 0.000256 0.011416 -2.871232
2007-04-17 08:45:07 51°13.611 2°56.062 19.3878 0.000256 0.011416 -2.871232
2007-04-17 08:45:12 51°13.613 2°56.055 19.4082 0.000256 0.011416 -2.871232
2007-04-17 08:45:17 51°13.614 2°56.049 19.3933 0.000256 0.011416 -2.871232
2007-04-17 08:45:21 51°13.616 2°56.043 19.3934 0.000256 0.011416 -2.871232
2007-04-17 08:45:26 51°13.618 2°56.036 19.3866 0.000256 0.011415 -2.871232
2007-04-17 08:45:32 51°13.62 2°56.028 19.3849 0.000256 0.011415 -2.871232
2007-04-17 08:45:37 51°13.622 2°56.021 19.3879 0.000256 0.011415 -2.871232
2007-04-17 08:45:42 51°13.625 2°56.013 19.3894 0.000256 0.011415 -2.871232
2007-04-17 08:45:47 51°13.626 2°56.006 19.4055 0.000256 0.011415 -2.871232
2007-04-17 08:45:51 51°13.628 2°56 19.4155 0.000256 0.011415 -2.871232
2007-04-17 08:45:57 51°13.631 2°55.991 19.4175 0.000256 0.011415 -2.871232
2007-04-17 08:46:02 51°13.633 2°55.984 19.418 0.000256 0.011415 -2.871232
2007-04-17 08:46:07 51°13.635 2°55.977 19.4177 0.000256 0.011415 -2.871232
2007-04-17 08:46:12 51°13.638 2°55.97 19.4156 0.000256 0.011415 -2.871232
2007-04-17 08:46:17 51°13.64 2°55.962 19.4142 0.000256 0.011415 -2.871232
2007-04-17 08:46:22 51°13.642 2°55.955 19.4211 0.000256 0.011415 -2.871232
2007-04-17 08:46:27 51°13.644 2°55.948 19.4151 0.000256 0.011415 -2.871232
2007-04-17 08:46:32 51°13.647 2°55.941 19.4161 0.000256 0.011415 -2.871232
2007-04-17 08:46:36 51°13.649 2°55.934 19.4138 0.000256 0.011415 -2.871232
2007-04-17 08:46:42 51°13.652 2°55.925 19.4248 0.000256 0.011415 -2.871232
2007-04-17 08:46:47 51°13.655 2°55.917 19.425 0.000256 0.011415 -2.871232
2007-04-17 08:46:52 51°13.658 2°55.909 19.4278 0.000256 0.011415 -2.871232
2007-04-17 08:46:57 51°13.66 2°55.902 19.4258 0.000256 0.011415 -2.871232
2007-04-17 08:47:01 51°13.662 2°55.896 19.4234 0.000256 0.011415 -2.871232
2007-04-17 08:47:07 51°13.665 2°55.887 19.4239 0.000256 0.011415 -2.871232
2007-04-17 08:47:12 51°13.668 2°55.88 19.4195 0.000256 0.011415 -2.871232
2007-04-17 08:47:17 51°13.67 2°55.873 19.4146 0.000256 0.011415 -2.871232
2007-04-17 08:47:22 51°13.672 2°55.866 19.4067 0.000256 0.011415 -2.871232
2007-04-17 08:47:26 51°13.674 2°55.86 19.4062 0.000256 0.011415 -2.871232
2007-04-17 08:47:32 51°13.677 2°55.851 19.402 0.000256 0.011415 -2.871232
2007-04-17 08:47:37 51°13.679 2°55.844 19.4023 0.000256 0.011415 -2.871232
2007-04-17 08:47:41 51°13.68 2°55.839 19.4019 0.000256 0.011415 -2.871232
2007-04-17 08:47:46 51°13.682 2°55.832 19.4033 0.000256 0.011415 -2.871232
2007-04-17 08:47:52 51°13.684 2°55.824 19.3854 0.000256 0.011415 -2.871232
2007-04-17 08:47:57 51°13.686 2°55.818 19.3795 0.000256 0.011415 -2.871232
2007-04-17 08:48:01 51°13.688 2°55.813 19.3745 0.000256 0.011414 -2.871232
2007-04-17 08:48:06 51°13.689 2°55.806 19.3786 0.000256 0.011414 -2.871232
2007-04-17 08:48:11 51°13.691 2°55.8 19.3778 0.000256 0.011414 -2.871232
2007-04-17 08:48:17 51°13.693 2°55.793 19.3972 0.000256 0.011414 -2.871232
2007-04-17 08:48:21 51°13.694 2°55.789 19.3936 0.000256 0.011414 -2.871232
2007-04-17 08:48:26 51°13.696 2°55.783 19.3983 0.000256 0.011414 -2.871232
2007-04-17 08:48:31 51°13.697 2°55.777 19.3982 0.000256 0.011414 -2.871232
2007-04-17 08:48:37 51°13.699 2°55.771 19.3979 0.000256 0.011414 -2.871232
2007-04-17 08:48:42 51°13.7 2°55.765 19.4038 0.000256 0.011414 -2.871232
2007-04-17 08:48:46 51°13.701 2°55.761 19.4014 0.000256 0.011414 -2.871232
2007-04-17 08:48:51 51°13.703 2°55.756 19.3994 0.000256 0.011414 -2.871232
2007-04-17 08:48:56 51°13.704 2°55.751 19.4008 0.000256 0.011414 -2.871232
2007-04-17 08:49:02 51°13.705 2°55.746 19.4076 0.000256 0.011414 -2.871232
2007-04-17 08:49:07 51°13.706 2°55.743 19.4241 0.000256 0.011413 -2.871232
2007-04-17 08:49:11 51°13.706 2°55.742 19.438 0.000256 0.011413 -2.871232
2007-04-17 08:49:16 51°13.706 2°55.74 19.4704 0.000256 0.011413 -2.871232
2007-04-17 08:49:21 51°13.707 2°55.74 19.4266 0.000256 0.011413 -2.871232
2007-04-17 08:49:26 51°13.707 2°55.74 19.4213 0.000256 0.011413 -2.871232
2007-04-17 08:49:31 51°13.707 2°55.741 19.4205 0.000256 0.011412 -2.871232
2007-04-17 08:49:37 51°13.707 2°55.743 19.4264 0.000256 0.011412 -2.871232
2007-04-17 08:49:41 51°13.707 2°55.744 19.4409 0.000256 0.011412 -2.871232
2007-04-17 08:49:46 51°13.707 2°55.745 19.279 0.000256 0.011412 -2.871232
2007-04-17 08:49:51 51°13.707 2°55.746 19.344 0.000256 0.011412 -2.871232
2007-04-17 08:49:56 51°13.707 2°55.747 19.2628 0.000256 0.011412 -2.871232
2007-04-17 08:50:01 51°13.706 2°55.746 19.3008 0.000256 0.011412 -2.871232
2007-04-17 08:50:06 51°13.706 2°55.745 19.3104 0.000256 0.011412 -2.871232
2007-04-17 08:50:11 51°13.706 2°55.743 19.3713 0.000256 0.011412 -2.871232
2007-04-17 08:50:17 51°13.705 2°55.739 19.3628 0.000256 0.011412 -2.871232
2007-04-17 08:50:21 51°13.704 2°55.737 19.3833 0.000256 0.011412 -2.871232
2007-04-17 08:50:26 51°13.704 2°55.735 19.3606 0.000256 0.011411 -2.871232
2007-04-17 08:50:32 51°13.703 2°55.731 19.3651 0.000256 0.011411 -2.871232
2007-04-17 08:50:37 51°13.703 2°55.729 19.3849 0.000256 0.01141 -2.871232
2007-04-17 08:50:42 51°13.703 2°55.727 19.3944 0.000256 0.01141 -2.871232
2007-04-17 08:50:47 51°13.702 2°55.726 19.4004 0.000256 0.01141 -2.871232
2007-04-17 08:50:51 51°13.702 2°55.725 19.3989 0.000256 0.01141 -2.871232
2007-04-17 08:50:56 51°13.702 2°55.724 19.4001 0.000256 0.011409 -2.871232
2007-04-17 08:51:02 51°13.702 2°55.723 19.4001 0.000256 0.011409 -2.871232
2007-04-17 08:51:07 51°13.702 2°55.723 19.403 0.000256 0.011409 -2.871232
2007-04-17 08:51:12 51°13.702 2°55.723 19.4056 0.000256 0.011408 -2.871232
2007-04-17 08:51:17 51°13.702 2°55.723 19.4099 0.000256 0.011408 -2.871232
2007-04-17 08:51:22 51°13.702 2°55.724 19.4204 0.000256 0.011408 -2.871232
2007-04-17 08:51:26 51°13.703 2°55.725 19.4839 0.000256 0.011408 -2.871232
2007-04-17 08:51:31 51°13.704 2°55.726 19.4824 0.000256 0.011408 -2.871232
2007-04-17 08:51:37 51°13.705 2°55.729 19.5232 0.000256 0.011407 -2.871232
2007-04-17 08:51:41 51°13.707 2°55.732 19.5544 0.000256 0.011406 -2.871232
2007-04-17 08:51:47 51°13.709 2°55.735 19.5298 0.000256 0.011406 -2.871232
2007-04-17 08:51:51 51°13.711 2°55.737 19.3649 0.000256 0.011406 -2.871232
2007-04-17 08:51:56 51°13.713 2°55.739 19.3658 0.000256 0.011406 -2.871232
2007-04-17 08:52:01 51°13.715 2°55.741 19.3313 0.000256 0.011406 -2.871232
2007-04-17 08:52:06 51°13.717 2°55.742 19.3182 0.000256 0.011406 -2.871232
2007-04-17 08:52:11 51°13.718 2°55.743 19.3457 0.000256 0.011406 -2.871232
2007-04-17 08:52:17 51°13.72 2°55.744 19.339 0.000256 0.011406 -2.871232
2007-04-17 08:52:21 51°13.72 2°55.744 19.3372 0.000256 0.011405 -2.871232
2007-04-17 08:52:26 51°13.72 2°55.745 19.27 0.000256 0.011405 -2.871232
2007-04-17 08:52:32 51°13.72 2°55.745 19.2863 0.000256 0.011404 -2.871232
2007-04-17 08:52:37 51°13.718 2°55.745 19.3946 0.000256 0.011404 -2.871232
2007-04-17 08:52:41 51°13.717 2°55.745 19.3786 0.000256 0.011404 -2.871232
2007-04-17 08:52:46 51°13.715 2°55.744 19.4124 0.000256 0.011404 -2.871232
2007-04-17 08:52:51 51°13.713 2°55.744 19.3973 0.000256 0.011403 -2.871232
2007-04-17 08:52:57 51°13.711 2°55.744 19.4048 0.000256 0.011403 -2.871232
2007-04-17 08:53:02 51°13.709 2°55.743 19.4059 0.000256 0.011402 -2.871232
2007-04-17 08:53:07 51°13.708 2°55.743 19.4043 0.000256 0.011401 -2.871232
2007-04-17 08:53:12 51°13.707 2°55.743 19.4351 0.000256 0.011401 -2.871232
2007-04-17 08:53:16 51°13.707 2°55.743 19.4648 0.000256 0.011401 -2.871232
2007-04-17 08:53:22 51°13.708 2°55.743 19.4852 0.000256 0.0114 -2.871232
2007-04-17 08:53:27 51°13.71 2°55.742 19.4894 0.000256 0.0114 -2.871232
2007-04-17 08:53:32 51°13.711 2°55.742 19.5078 0.000256 0.011399 -2.871232
2007-04-17 08:53:36 51°13.712 2°55.741 19.4597 0.000256 0.011399 -2.871232
2007-04-17 08:53:42 51°13.715 2°55.739 19.4836 0.000256 0.011398 -2.871232
2007-04-17 08:53:46 51°13.717 2°55.737 19.4934 0.000256 0.011398 -2.871232
2007-04-17 08:53:52 51°13.721 2°55.734 19.4991 0.000256 0.011398 -2.871232
2007-04-17 08:53:57 51°13.725 2°55.731 19.4884 0.000256 0.011398 -2.871232
2007-04-17 08:54:01 51°13.728 2°55.728 19.4919 0.000256 0.011397 -2.871232
2007-04-17 08:54:06 51°13.732 2°55.723 19.3982 0.000256 0.011397 -2.871232
2007-04-17 08:54:11 51°13.738 2°55.719 19.3865 0.000256 0.011397 -2.871232
2007-04-17 08:54:17 51°13.744 2°55.712 19.3465 0.000256 0.011397 -2.871232
2007-04-17 08:54:21 51°13.749 2°55.707 19.3479 0.000256 0.011396 -2.871232
2007-04-17 08:54:26 51°13.756 2°55.701 19.2889 0.000256 0.011396 -2.871232
2007-04-17 08:54:31 51°13.762 2°55.694 19.2719 0.000256 0.011395 -2.871232
2007-04-17 08:54:37 51°13.771 2°55.686 19.2775 0.000256 0.011395 -2.871232
2007-04-17 08:54:41 51°13.778 2°55.68 19.2782 0.000256 0.011395 -2.871232
2007-04-17 08:54:46 51°13.786 2°55.673 19.2871 0.000256 0.011395 -2.871232
2007-04-17 08:54:51 51°13.795 2°55.666 19.297 0.000256 0.011394 -2.871232
2007-04-17 08:54:57 51°13.806 2°55.658 19.2148 0.000256 0.011394 -2.871232
2007-04-17 08:55:02 51°13.815 2°55.651 19.034 0.000256 0.011394 -2.871232
2007-04-17 08:55:06 51°13.822 2°55.645 17.0878 0.004475 0.027951 -2.871232
2007-04-17 08:55:11 51°13.831 2°55.638 15.9842 0.108107 0.560305 -2.871232
2007-04-17 08:55:17 51°13.842 2°55.63 15.1474 0.108107 0.560305 -2.871232
2007-04-17 08:55:21 51°13.85 2°55.624 14.4675 0.333715 1.774157 -2.871232
2007-04-17 08:55:26 51°13.859 2°55.617 14.1686 0.637836 3.422427 -2.871232
2007-04-17 08:55:31 51°13.868 2°55.609 13.9766 2.057496 12.559931 -2.871232
2007-04-17 08:55:36 51°13.878 2°55.601 13.8476 3.272202 21.88771 -2.871232
2007-04-17 08:55:42 51°13.89 2°55.593 13.7614 3.375843 23.559526 -2.871232
2007-04-17 08:55:47 51°13.899 2°55.584 13.6332 3.375843 23.559526 -2.871232
2007-04-17 08:55:52 51°13.909 2°55.577 13.5544 3.387037 24.305983 -2.871232
2007-04-17 08:55:56 51°13.917 2°55.571 13.5511 3.367896 24.851223 -2.871232
2007-04-17 08:56:01 51°13.927 2°55.563 13.549 3.353617 25.177236 -2.871232
2007-04-17 08:56:06 51°13.938 2°55.556 13.5101 3.347101 25.428751 -2.871232
2007-04-17 08:56:11 51°13.949 2°55.548 13.4436 3.333026 25.552151 -2.871232
2007-04-17 08:56:17 51°13.961 2°55.538 13.4124 3.333026 25.552151 -2.871232
2007-04-17 08:56:21 51°13.97 2°55.531 13.4055 3.333856 25.717985 -2.871232
2007-04-17 08:56:27 51°13.983 2°55.523 13.3847 3.32775 25.773471 -2.871232
2007-04-17 08:56:32 51°13.994 2°55.515 13.4077 3.325992 25.848531 -2.871232
2007-04-17 08:56:37 51°14.004 2°55.507 13.3545 3.326718 25.905728 -2.871232
2007-04-17 08:56:42 51°14.015 2°55.499 13.3597 3.329099 25.978651 -2.871232
2007-04-17 08:56:46 51°14.024 2°55.492 13.3584 3.329099 25.978651 -2.871232
2007-04-17 08:56:51 51°14.034 2°55.483 13.3657 3.333034 26.060514 -2.871232
2007-04-17 08:56:57 51°14.047 2°55.474 13.3513 3.331585 26.076195 -2.871232
2007-04-17 08:57:01 51°14.056 2°55.467 13.3247 3.325892 26.046714 -2.871232
2007-04-17 08:57:06 51°14.067 2°55.46 13.3236 3.318232 25.999555 -2.871232
2007-04-17 08:57:11 51°14.078 2°55.452 13.3167 3.308191 25.929909 -2.871232
2007-04-17 08:57:17 51°14.091 2°55.443 13.3204 3.308191 25.929909 -2.871232
2007-04-17 08:57:21 51°14.1 2°55.437 13.3034 3.301773 25.886241 -2.871232
2007-04-17 08:57:26 51°14.11 2°55.43 13.2747 3.297839 25.856919 -2.871232
2007-04-17 08:57:31 51°14.121 2°55.422 13.2797 3.295045 25.844039 -2.871232
2007-04-17 08:57:37 51°14.134 2°55.412 13.2596 3.29577 25.86947 -2.871232
2007-04-17 08:57:42 51°14.144 2°55.403 13.2699 3.298772 25.903323 -2.871232
2007-04-17 08:57:47 51°14.155 2°55.395 13.2668 3.298772 25.903323 -2.871232
2007-04-17 08:57:51 51°14.164 2°55.388 13.2574 3.302809 25.947396 -2.871232
2007-04-17 08:57:56 51°14.174 2°55.378 13.2407 3.306743 25.991812 -2.871232
2007-04-17 08:58:02 51°14.185 2°55.365 13.2367 3.312643 26.058211 -2.871232
2007-04-17 08:58:07 51°14.195 2°55.354 13.2511 3.316784 26.10756 -2.871232
2007-04-17 08:58:11 51°14.202 2°55.344 13.2293 3.322582 26.164719 -2.871232
2007-04-17 08:58:16 51°14.212 2°55.331 13.2344 3.322582 26.164719 -2.871232
2007-04-17 08:58:21 51°14.221 2°55.317 13.2271 3.324445 26.184598 -2.871232
2007-04-17 08:58:27 51°14.232 2°55.3 13.2222 3.328482 26.228302 -2.871232
2007-04-17 08:58:31 51°14.239 2°55.287 13.2102 3.331071 26.260012 -2.871232
2007-04-17 08:58:36 51°14.249 2°55.272 13.2284 3.331795 26.271214 -2.871232
2007-04-17 08:58:41 51°14.258 2°55.257 13.2179 3.330864 26.267359 -2.871232
2007-04-17 08:58:46 51°14.268 2°55.241 13.2168 3.330864 26.267359 -2.871232
2007-04-17 08:58:51 51°14.277 2°55.225 13.216 3.329829 26.264431 -2.871232
2007-04-17 08:58:57 51°14.289 2°55.205 13.2039 3.334901 26.313594 -2.871232
2007-04-17 08:59:01 51°14.296 2°55.191 13.1887 3.339456 26.358265 -2.871232
2007-04-17 08:59:06 51°14.305 2°55.173 13.1924 3.339767 26.364656 -2.871232
2007-04-17 08:59:11 51°14.315 2°55.155 13.178 3.34691 26.427672 -2.871232
2007-04-17 08:59:17 51°14.327 2°55.131 13.1951 3.34691 26.427672 -2.871232
2007-04-17 08:59:21 51°14.334 2°55.114 13.2105 3.352604 26.481123 -2.871232
2007-04-17 08:59:26 51°14.344 2°55.093 13.2063 3.360058 26.550611 -2.871232
2007-04-17 08:59:31 51°14.354 2°55.072 13.1959 3.372275 26.661194 -2.871232
2007-04-17 08:59:37 51°14.366 2°55.045 13.1855 3.385217 26.78133 -2.871232
2007-04-17 08:59:41 51°14.373 2°55.026 13.1735 3.394949 26.871587 -2.871232
2007-04-17 08:59:46 51°14.38 2°55.001 13.193 3.394949 26.871587 -2.871232
2007-04-17 08:59:51 51°14.388 2°54.976 13.1841 3.402922 26.943972 -2.871232
2007-04-17 08:59:56 51°14.395 2°54.951 13.1895 3.405924 26.96967 -2.871232
2007-04-17 09:00:02 51°14.404 2°54.92 13.1915 3.415657 27.054393 -2.871232
2007-04-17 09:00:06 51°14.41 2°54.899 13.187 3.421663 27.110864 -2.871232
2007-04-17 09:00:11 51°14.419 2°54.873 13.1794 3.428186 27.174442 -2.871232
2007-04-17 09:00:16 51°14.427 2°54.847 13.1614 3.428186 27.174442 -2.871232
2007-04-17 09:00:21 51°14.435 2°54.82 13.1153 3.439783 27.278825 -2.871232
2007-04-17 09:00:26 51°14.443 2°54.794 13.0862 3.451898 27.384001 -2.871232
2007-04-17 09:00:31 51°14.451 2°54.767 13.063 3.473127 27.571936 -2.871232
2007-04-17 09:00:36 51°14.46 2°54.741 13.0423 3.490525 27.72633 -2.871232
2007-04-17 09:00:41 51°14.467 2°54.713 12.9876 3.513205 27.929351 -2.871232
2007-04-17 09:00:46 51°14.475 2°54.686 12.9724 3.513205 27.929351 -2.871232
2007-04-17 09:00:51 51°14.483 2°54.659 12.9322 3.536404 28.142441 -2.871232
2007-04-17 09:00:56 51°14.491 2°54.632 12.9272 3.552458 28.298018 -2.871232
2007-04-17 09:01:01 51°14.498 2°54.605 12.8958 3.571931 28.498063 -2.871232
2007-04-17 09:01:06 51°14.505 2°54.577 12.8655 3.579596 28.587292 -2.871232
2007-04-17 09:01:11 51°14.511 2°54.549 12.8554 3.59213 28.731299 -2.871232
2007-04-17 09:01:17 51°14.519 2°54.515 12.8523 3.59213 28.731299 -2.871232
2007-04-17 09:01:21 51°14.524 2°54.492 12.8286 3.595548 28.785907 -2.871232
2007-04-17 09:01:26 51°14.53 2°54.463 12.8315 3.598242 28.842285 -2.871232
2007-04-17 09:01:31 51°14.535 2°54.434 12.8148 3.553392 28.466407 -2.871232
2007-04-17 09:01:37 51°14.542 2°54.4 12.7742 3.548318 28.440683 -2.871232
2007-04-17 09:01:41 51°14.547 2°54.376 12.7729 3.508858 28.110649 -2.871232
2007-04-17 09:01:46 51°14.553 2°54.348 12.7769 3.508858 28.110649 -2.871232
2007-04-17 09:01:51 51°14.559 2°54.319 12.7629 3.61057 29.031689 -2.871232
2007-04-17 09:01:56 51°14.565 2°54.291 12.749 3.610777 29.049265 -2.871232
2007-04-17 09:02:01 51°14.571 2°54.262 12.7539 3.611192 29.065287 -2.871232
2007-04-17 09:02:06 51°14.578 2°54.233 12.7306 3.610571 29.073435 -2.871232
2007-04-17 09:02:11 51°14.583 2°54.204 12.7081 3.6114 29.097306 -2.871232
2007-04-17 09:02:16 51°14.589 2°54.176 12.7217 3.6114 29.097306 -2.871232
2007-04-17 09:02:21 51°14.594 2°54.147 12.6899 3.610364 29.097651 -2.871232
2007-04-17 09:02:26 51°14.6 2°54.118 12.6929 3.611711 29.120007 -2.871232
2007-04-17 09:02:31 51°14.604 2°54.089 12.6532 3.611607 29.134211 -2.871232
2007-04-17 09:02:36 51°14.608 2°54.059 12.6487 3.610986 29.136904 -2.871232
2007-04-17 09:02:41 51°14.611 2°54.03 12.6382 3.61109 29.150918 -2.871232
2007-04-17 09:02:46 51°14.615 2°54 12.6365 3.61109 29.150918 -2.871232
2007-04-17 09:02:51 51°14.618 2°53.97 12.6115 3.610986 29.159641 -2.871232
2007-04-17 09:02:56 51°14.621 2°53.941 12.6127 3.610676 29.165821 -2.871232
2007-04-17 09:03:01 51°14.623 2°53.911 12.5789 3.610365 29.174077 -2.871232
2007-04-17 09:03:06 51°14.626 2°53.881 12.5649 3.610158 29.190179 -2.871232
2007-04-17 09:03:11 51°14.629 2°53.851 12.553 3.609537 29.19428 -2.871232
2007-04-17 09:03:16 51°14.631 2°53.821 12.5322 3.609537 29.19428 -2.871232
2007-04-17 09:03:21 51°14.634 2°53.791 12.5258 3.607362 29.184429 -2.871232
2007-04-17 09:03:26 51°14.636 2°53.762 12.4966 3.607466 29.199198 -2.871232
2007-04-17 09:03:31 51°14.638 2°53.732 12.4703 3.607051 29.211406 -2.871232
2007-04-17 09:03:36 51°14.641 2°53.702 12.4635 3.605809 29.219641 -2.871232
2007-04-17 09:03:41 51°14.643 2°53.672 12.4525 3.604877 29.223744 -2.871232
2007-04-17 09:03:46 51°14.644 2°53.643 12.4414 3.604877 29.223744 -2.871232
2007-04-17 09:03:51 51°14.646 2°53.613 12.4251 3.603841 29.230391 -2.871232
2007-04-17 09:03:56 51°14.647 2°53.584 12.4181 3.598869 29.200204 -2.871232
2007-04-17 09:04:01 51°14.648 2°53.554 12.4007 3.60208 29.245119 -2.871232
2007-04-17 09:04:06 51°14.649 2°53.525 12.3882 3.601252 29.257839 -2.871232
2007-04-17 09:04:11 51°14.649 2°53.494 12.3557 3.600113 29.263589 -2.871232
2007-04-17 09:04:16 51°14.649 2°53.464 12.3319 3.600113 29.263589 -2.871232
2007-04-17 09:04:21 51°14.649 2°53.434 12.3067 3.598559 29.263514 -2.871232
2007-04-17 09:04:26 51°14.649 2°53.404 12.3145 3.597524 29.266721 -2.871232
2007-04-17 09:04:31 51°14.65 2°53.374 12.246 3.596384 29.2676 -2.871232
2007-04-17 09:04:36 51°14.649 2°53.344 12.2305 3.595349 29.272909 -2.871232
2007-04-17 09:04:41 51°14.649 2°53.313 12.1981 3.594313 29.281021 -2.871232
2007-04-17 09:04:46 51°14.65 2°53.283 12.1572 3.594313 29.281021 -2.871232
2007-04-17 09:04:51 51°14.65 2°53.253 12.101 3.592863 29.286096 -2.871232
2007-04-17 09:04:56 51°14.65 2°53.223 12.1004 3.591414 29.294682 -2.871232
2007-04-17 09:05:01 51°14.65 2°53.193 12.0772 3.589653 29.301869 -2.871232
2007-04-17 09:05:06 51°14.65 2°53.162 12.0526 3.588721 29.322908 -2.871232
2007-04-17 09:05:11 51°14.65 2°53.131 12.0426 3.587271 29.340697 -2.871232
2007-04-17 09:05:16 51°14.65 2°53.101 12.041 3.587271 29.340697 -2.871232
2007-04-17 09:05:21 51°14.65 2°53.07 12.013 3.585925 29.357354 -2.871232
2007-04-17 09:05:26 51°14.65 2°53.04 12.011 3.584476 29.371691 -2.871232
2007-04-17 09:05:31 51°14.651 2°53.01 12.0157 3.580747 29.364608 -2.871232
2007-04-17 09:05:36 51°14.651 2°52.979 11.9991 3.581162 29.396678 -2.871232
2007-04-17 09:05:41 51°14.651 2°52.949 12.0132 3.579608 29.402357 -2.871232
2007-04-17 09:05:46 51°14.652 2°52.918 11.9813 3.579608 29.402357 -2.871232
2007-04-17 09:05:51 51°14.652 2°52.887 11.993 3.578366 29.405913 -2.871232
2007-04-17 09:05:56 51°14.652 2°52.857 11.9719 3.577227 29.409 -2.871232
2007-04-17 09:06:01 51°14.652 2°52.826 11.9739 3.57588 29.408069 -2.871232
2007-04-17 09:06:06 51°14.652 2°52.796 11.9472 3.575362 29.411864 -2.871232
2007-04-17 09:06:11 51°14.652 2°52.765 11.9517 3.574948 29.413053 -2.871232
2007-04-17 09:06:16 51°14.65 2°52.734 11.9495 3.574948 29.413053 -2.871232
2007-04-17 09:06:21 51°14.648 2°52.703 11.9618 3.574845 29.419925 -2.871232
2007-04-17 09:06:26 51°14.645 2°52.672 11.9604 3.574845 29.429169 -2.871232
2007-04-17 09:06:31 51°14.643 2°52.641 11.9709 3.574845 29.437707 -2.871232
2007-04-17 09:06:36 51°14.639 2°52.61 11.9928 3.574949 29.447197 -2.871232
2007-04-17 09:06:41 51°14.637 2°52.578 11.9851 3.574845 29.454086 -2.871232
2007-04-17 09:06:46 51°14.633 2°52.547 11.9821 3.574845 29.454086 -2.871232
2007-04-17 09:06:51 51°14.631 2°52.516 11.9886 3.574638 29.455042 -2.871232
2007-04-17 09:06:56 51°14.627 2°52.485 11.9961 3.574535 29.45552 -2.871232
2007-04-17 09:07:01 51°14.625 2°52.454 12.0066 3.574742 29.45599 -2.871232
2007-04-17 09:07:06 51°14.622 2°52.423 12.0255 3.574534 29.44982 -2.871232
2007-04-17 09:07:11 51°14.619 2°52.392 11.993 3.574224 29.443417 -2.871232
2007-04-17 09:07:16 51°14.614 2°52.362 11.9934 3.574224 29.443417 -2.871232
2007-04-17 09:07:21 51°14.609 2°52.332 11.9988 3.574742 29.445303 -2.871232
2007-04-17 09:07:26 51°14.602 2°52.302 11.9993 3.575052 29.44316 -2.871232
2007-04-17 09:07:31 51°14.596 2°52.272 11.9934 3.575363 29.441728 -2.871232
2007-04-17 09:07:36 51°14.588 2°52.243 11.9892 3.574948 29.430826 -2.871232
2007-04-17 09:07:41 51°14.581 2°52.213 11.9901 3.575466 29.434847 -2.871232
2007-04-17 09:07:46 51°14.573 2°52.184 11.9913 3.575466 29.434847 -2.871232
2007-04-17 09:07:51 51°14.566 2°52.155 11.9825 3.575052 29.433907 -2.871232
2007-04-17 09:07:56 51°14.557 2°52.125 11.9912 3.57557 29.441486 -2.871232
2007-04-17 09:08:01 51°14.55 2°52.096 11.9522 3.575466 29.442675 -2.871232
2007-04-17 09:08:06 51°14.542 2°52.067 11.9381 3.57557 29.445046 -2.871232
2007-04-17 09:08:11 51°14.535 2°52.038 11.933 3.575466 29.444099 -2.871232
2007-04-17 09:08:16 51°14.527 2°52.008 11.9368 3.575466 29.444099 -2.871232
2007-04-17 09:08:21 51°14.52 2°51.979 11.9342 3.575674 29.445992 -2.871232
2007-04-17 09:08:26 51°14.512 2°51.95 11.9434 3.575984 29.447409 -2.871232
2007-04-17 09:08:31 51°14.504 2°51.92 11.9386 3.575881 29.448598 -2.871232
2007-04-17 09:08:36 51°14.496 2°51.891 11.9417 3.574017 29.442235 -2.871232
2007-04-17 09:08:41 51°14.489 2°51.861 11.9405 3.57267 29.440606 -2.871232
2007-04-17 09:08:46 51°14.481 2°51.832 11.9368 3.57267 29.440606 -2.871232
2007-04-17 09:08:51 51°14.474 2°51.802 11.9223 3.571117 29.432094 -2.871232
2007-04-17 09:08:56 51°14.467 2°51.773 11.9102 3.569252 29.417889 -2.871232
2007-04-17 09:09:01 51°14.46 2°51.744 11.898 3.570081 29.426181 -2.871232
2007-04-17 09:09:06 51°14.452 2°51.714 11.8901 3.567388 29.401547 -2.871232
2007-04-17 09:09:11 51°14.446 2°51.684 11.9054 3.568009 29.407232 -2.871232
2007-04-17 09:09:16 51°14.438 2°51.655 11.9081 3.568009 29.407232 -2.871232
2007-04-17 09:09:21 51°14.431 2°51.625 11.91 3.568113 29.410315 -2.871232
2007-04-17 09:09:26 51°14.424 2°51.596 11.9222 3.569667 29.430227 -2.871232
2007-04-17 09:09:31 51°14.416 2°51.566 11.9162 3.565316 29.398967 -2.871232
2007-04-17 09:09:36 51°14.409 2°51.536 11.9131 3.562831 29.384761 -2.871232
2007-04-17 09:09:41 51°14.402 2°51.507 11.9223 3.566352 29.421986 -2.871232
2007-04-17 09:09:46 51°14.395 2°51.476 11.9252 3.566352 29.421986 -2.871232
2007-04-17 09:09:51 51°14.387 2°51.447 11.928 3.560759 29.372206 -2.871232
2007-04-17 09:09:56 51°14.381 2°51.417 11.9301 3.56801 29.43716 -2.871232
2007-04-17 09:10:01 51°14.373 2°51.387 11.9276 3.56687 29.42245 -2.871232
2007-04-17 09:10:06 51°14.366 2°51.357 11.9313 3.566974 29.421972 -2.871232
2007-04-17 09:10:11 51°14.36 2°51.327 11.916 3.567388 29.426478 -2.871232
2007-04-17 09:10:16 51°14.353 2°51.297 11.9093 3.567388 29.426478 -2.871232
2007-04-17 09:10:21 51°14.346 2°51.267 11.9288 3.567802 29.425993 -2.871232
2007-04-17 09:10:26 51°14.339 2°51.237 11.9273 3.568527 29.431917 -2.871232
2007-04-17 09:10:31 51°14.332 2°51.207 11.9193 3.56542 29.402052 -2.871232
2007-04-17 09:10:36 51°14.325 2°51.177 11.915 3.567181 29.418167 -2.871232
2007-04-17 09:10:41 51°14.318 2°51.147 11.8985 3.566249 29.409635 -2.871232
2007-04-17 09:10:46 51°14.31 2°51.118 11.902 3.566249 29.409635 -2.871232
2007-04-17 09:10:51 51°14.303 2°51.088 11.8827 3.567492 29.423862 -2.871232
2007-04-17 09:10:56 51°14.296 2°51.058 11.8789 3.565834 29.409405 -2.871232
2007-04-17 09:11:01 51°14.289 2°51.028 11.8874 3.564488 29.397081 -2.871232
2007-04-17 09:11:06 51°14.282 2°50.998 11.885 3.564695 29.400401 -2.871232
2007-04-17 09:11:11 51°14.274 2°50.969 11.8977 3.562417 29.384528 -2.871232
2007-04-17 09:11:16 51°14.267 2°50.939 11.9028 3.562417 29.384528 -2.871232
2007-04-17 09:11:21 51°14.26 2°50.909 11.9156 3.560241 29.366753 -2.871232
2007-04-17 09:11:26 51°14.252 2°50.879 11.9176 3.566145 29.427933 -2.871232
2007-04-17 09:11:31 51°14.245 2°50.849 11.9048 3.562313 29.399965 -2.871232
2007-04-17 09:11:36 51°14.237 2°50.82 11.9104 3.560967 29.391908 -2.871232
2007-04-17 09:11:41 51°14.23 2°50.79 11.9238 3.563763 29.416099 -2.871232
2007-04-17 09:11:46 51°14.222 2°50.761 11.936 3.563763 29.416099 -2.871232
2007-04-17 09:11:51 51°14.215 2°50.73 11.9449 3.56252 29.401149 -2.871232
2007-04-17 09:11:56 51°14.207 2°50.7 11.9596 3.562106 29.392367 -2.871232
2007-04-17 09:12:01 51°14.2 2°50.67 11.9597 3.563245 29.399949 -2.871232
2007-04-17 09:12:06 51°14.192 2°50.64 11.9684 3.561174 29.38027 -2.871232
2007-04-17 09:12:11 51°14.186 2°50.61 11.9611 3.560345 29.369125 -2.871232
2007-04-17 09:12:16 51°14.179 2°50.58 11.9557 3.560345 29.369125 -2.871232
2007-04-17 09:12:21 51°14.172 2°50.55 11.9363 3.564384 29.398981 -2.871232
2007-04-17 09:12:26 51°14.165 2°50.52 11.9322 3.563866 29.38641 -2.871232
2007-04-17 09:12:31 51°14.158 2°50.49 11.9189 3.565627 29.39398 -2.871232
2007-04-17 09:12:36 51°14.151 2°50.46 11.9169 3.565523 29.386629 -2.871232
2007-04-17 09:12:41 51°14.145 2°50.432 11.9154 3.567077 29.397282 -2.871232
2007-04-17 09:12:46 51°14.139 2°50.405 11.9023 3.567077 29.397282 -2.871232
2007-04-17 09:12:51 51°14.132 2°50.379 11.8991 3.566352 29.391362 -2.871232
2007-04-17 09:12:56 51°14.126 2°50.354 11.8998 3.568424 29.415294 -2.871232
2007-04-17 09:13:01 51°14.119 2°50.333 11.8908 3.570599 29.443035 -2.871232
2007-04-17 09:13:06 51°14.112 2°50.314 11.9082 3.570703 29.450401 -2.871232
2007-04-17 09:13:11 51°14.104 2°50.297 11.9114 3.570599 29.454447 -2.871232
2007-04-17 09:13:16 51°14.096 2°50.283 11.9078 3.570599 29.454447 -2.871232
2007-04-17 09:13:21 51°14.088 2°50.27 11.9095 3.570599 29.459443 -2.871232
2007-04-17 09:13:26 51°14.08 2°50.259 11.9154 3.570599 29.466583 -2.871232
2007-04-17 09:13:31 51°14.072 2°50.25 11.9163 3.570496 29.470635 -2.871232
2007-04-17 09:13:36 51°14.064 2°50.242 11.9194 3.570185 29.472075 -2.871232
2007-04-17 09:13:41 51°14.056 2°50.235 11.9188 3.569771 29.466136 -2.871232
2007-04-17 09:13:46 51°14.049 2°50.229 11.915 3.569771 29.466136 -2.871232
2007-04-17 09:13:51 51°14.041 2°50.224 11.914 3.569978 29.467319 -2.871232
2007-04-17 09:13:56 51°14.034 2°50.219 11.9031 3.570081 29.467554 -2.871232
2007-04-17 09:14:01 51°14.028 2°50.214 11.8926 3.570392 29.469686 -2.871232
2007-04-17 09:14:06 51°14.022 2°50.209 11.8837 3.570599 29.470155 -2.871232
2007-04-17 09:14:11 51°14.016 2°50.205 11.8877 3.570806 29.469909 -2.871232
2007-04-17 09:14:16 51°14.011 2°50.2 11.8886 3.570806 29.469909 -2.871232
2007-04-17 09:14:21 51°14.007 2°50.195 11.887 3.571014 29.470378 -2.871232
2007-04-17 09:14:26 51°14.002 2°50.19 11.8822 3.571324 29.473939 -2.871232
2007-04-17 09:14:31 51°13.998 2°50.186 11.8773 3.571428 29.479889 -2.871232
2007-04-17 09:14:36 51°13.995 2°50.18 11.8805 3.571221 29.48228 -2.871232
2007-04-17 09:14:41 51°13.991 2°50.175 11.8831 3.571014 29.485386 -2.871232
2007-04-17 09:14:46 51°13.988 2°50.171 11.8812 3.571014 29.485386 -2.871232
2007-04-17 09:14:51 51°13.985 2°50.166 11.8856 3.570703 29.485399 -2.871232
2007-04-17 09:14:56 51°13.982 2°50.161 11.922 3.570392 29.483981 -2.871232
2007-04-17 09:15:01 51°13.979 2°50.156 11.9717 3.570185 29.485658 -2.871232
2007-04-17 09:15:06 51°13.976 2°50.151 11.9193 3.570185 29.489235 -2.871232
2007-04-17 09:15:11 51°13.973 2°50.146 11.8925 3.569875 29.489964 -2.871232
2007-04-17 09:15:16 51°13.97 2°50.141 11.9127 3.569875 29.489964 -2.871232
2007-04-17 09:15:21 51°13.967 2°50.136 11.889 3.569253 29.486412 -2.871232
2007-04-17 09:15:26 51°13.965 2°50.131 11.903 3.568942 29.481417 -2.871232
2007-04-17 09:15:31 51°13.962 2°50.126 11.8971 3.567803 29.455963 -2.871232
2007-04-17 09:15:36 51°13.959 2°50.121 11.8876 3.56801 29.445722 -2.871232
2007-04-17 09:15:41 51°13.956 2°50.116 11.9467 3.569149 29.464729 -2.871232
2007-04-17 09:15:46 51°13.953 2°50.111 11.9512 3.569149 29.464729 -2.871232
2007-04-17 09:15:51 51°13.95 2°50.106 11.9316 3.56946 29.474008 -2.871232
2007-04-17 09:15:56 51°13.947 2°50.1 11.9403 3.569357 29.476633 -2.871232
2007-04-17 09:16:01 51°13.945 2°50.095 11.9658 3.568942 29.471406 -2.871232
2007-04-17 09:16:06 51°13.942 2°50.089 12.0133 3.569253 29.477114 -2.871232
2007-04-17 09:16:11 51°13.939 2°50.082 11.9813 3.568632 29.466414 -2.871232
2007-04-17 09:16:16 51°13.937 2°50.075 11.9853 3.568632 29.466414 -2.871232
2007-04-17 09:16:21 51°13.934 2°50.068 12.0082 3.568424 29.455229 -2.871232
2007-04-17 09:16:26 51°13.932 2°50.06 11.9275 3.568631 29.452842 -2.871232
2007-04-17 09:16:31 51°13.93 2°50.052 11.9917 3.568735 29.449508 -2.871232
2007-04-17 09:16:36 51°13.928 2°50.044 11.9695 3.568217 29.431925 -2.871232
2007-04-17 09:16:41 51°13.926 2°50.036 11.9347 3.568527 29.421227 -2.871232
2007-04-17 09:16:46 51°13.924 2°50.027 11.9269 3.568527 29.421227 -2.871232
2007-04-17 09:16:51 51°13.923 2°50.019 11.9292 3.569149 29.426201 -2.871232
2007-04-17 09:16:56 51°13.922 2°50.01 11.9248 3.569149 29.425489 -2.871232
2007-04-17 09:17:01 51°13.921 2°50.001 11.9239 3.56977 29.436164 -2.871232
2007-04-17 09:17:06 51°13.92 2°49.992 11.9076 3.56946 29.431895 -2.871232
2007-04-17 09:17:11 51°13.919 2°49.984 11.913 3.569978 29.443051 -2.871232
2007-04-17 09:17:16 51°13.919 2°49.974 11.9207 3.569978 29.443051 -2.871232
2007-04-17 09:17:21 51°13.919 2°49.965 11.9026 3.56977 29.444721 -2.871232
2007-04-17 09:17:26 51°13.918 2°49.955 11.8885 3.569874 29.448523 -2.871232
2007-04-17 09:17:31 51°13.919 2°49.945 11.8966 3.569874 29.458515 -2.871232
2007-04-17 09:17:36 51°13.919 2°49.935 11.8867 3.569771 29.466136 -2.871232
2007-04-17 09:17:41 51°13.919 2°49.925 11.8853 3.569564 29.469954 -2.871232
2007-04-17 09:17:46 51°13.92 2°49.915 11.8737 3.569564 29.469954 -2.871232
2007-04-17 09:17:51 51°13.92 2°49.905 11.8766 3.568528 29.460463 -2.871232
2007-04-17 09:17:56 51°13.92 2°49.895 11.8887 3.569253 29.471394 -2.871232
2007-04-17 09:18:01 51°13.921 2°49.885 11.9006 3.569149 29.475449 -2.871232
2007-04-17 09:18:06 51°13.921 2°49.875 11.8866 3.568942 29.477841 -2.871232
2007-04-17 09:18:11 51°13.922 2°49.865 11.8797 3.568839 29.479752 -2.871232
2007-04-17 09:18:16 51°13.922 2°49.854 11.8761 3.568839 29.479752 -2.871232
2007-04-17 09:18:21 51°13.922 2°49.844 11.8929 3.568528 29.476188 -2.871232
2007-04-17 09:18:26 51°13.923 2°49.833 11.8867 3.568632 29.48143 -2.871232
2007-04-17 09:18:31 51°13.923 2°49.823 11.8965 3.568425 29.482392 -2.871232
2007-04-17 09:18:36 51°13.924 2°49.813 11.8956 3.568321 29.482158 -2.871232
2007-04-17 09:18:41 51°13.924 2°49.802 11.8805 3.568218 29.483355 -2.871232
2007-04-17 09:18:46 51°13.925 2°49.792 11.8906 3.568218 29.483355 -2.871232
2007-04-17 09:18:51 51°13.925 2°49.782 11.8725 3.568218 29.485501 -2.871232
2007-04-17 09:18:56 51°13.925 2°49.772 11.8876 3.567907 29.479789 -2.871232
2007-04-17 09:19:01 51°13.924 2°49.762 11.8802 3.567907 29.476928 -2.871232
2007-04-17 09:19:06 51°13.924 2°49.752 11.8774 3.567907 29.475497 -2.871232
2007-04-17 09:19:11 51°13.923 2°49.742 11.882 3.568114 29.479543 -2.871232
2007-04-17 09:19:16 51°13.923 2°49.733 11.8778 3.568114 29.479543 -2.871232
2007-04-17 09:19:21 51°13.922 2°49.723 11.8864 3.568114 29.480974 -2.871232
2007-04-17 09:19:26 51°13.921 2°49.714 11.8799 3.568114 29.480974 -2.871232
2007-04-17 09:19:31 51°13.92 2°49.705 11.8985 3.568114 29.480258 -2.871232
2007-04-17 09:19:36 51°13.919 2°49.696 11.8901 3.568218 29.483355 -2.871232
2007-04-17 09:19:41 51°13.918 2°49.688 11.8766 3.568321 29.48502 -2.871232
2007-04-17 09:19:46 51°13.918 2°49.679 11.9122 3.568321 29.48502 -2.871232
2007-04-17 09:19:51 51°13.917 2°49.671 11.9095 3.568425 29.48597 -2.871232
2007-04-17 09:19:56 51°13.916 2°49.663 11.884 3.568218 29.484786 -2.871232
2007-04-17 09:20:01 51°13.915 2°49.655 11.9156 3.568114 29.483836 -2.871232
2007-04-17 09:20:06 51°13.914 2°49.647 11.9031 3.567803 29.480271 -2.871232
2007-04-17 09:20:11 51°13.913 2°49.64 11.9204 3.56801 29.48217 -2.871232
2007-04-17 09:20:16 51°13.912 2°49.633 11.9189 3.56801 29.48217 -2.871232
2007-04-17 09:20:21 51°13.911 2°49.626 11.9019 3.5677 29.475028 -2.871232
2007-04-17 09:20:26 51°13.91 2°49.618 11.9189 3.567596 29.469072 -2.871232
2007-04-17 09:20:31 51°13.909 2°49.611 11.903 3.567907 29.472636 -2.871232
2007-04-17 09:20:36 51°13.908 2°49.605 11.9227 3.567803 29.468827 -2.871232
2007-04-17 09:20:41 51°13.907 2°49.598 11.9149 3.56801 29.467866 -2.871232
2007-04-17 09:20:46 51°13.906 2°49.591 11.9181 3.56801 29.467866 -2.871232
2007-04-17 09:20:51 51°13.905 2°49.585 11.9092 3.567803 29.463108 -2.871232
2007-04-17 09:20:56 51°13.904 2°49.578 11.9086 3.568114 29.465241 -2.871232
2007-04-17 09:21:01 51°13.903 2°49.572 11.9058 3.568114 29.463812 -2.871232
2007-04-17 09:21:06 51°13.902 2°49.565 11.9139 3.56801 29.461433 -2.871232
2007-04-17 09:21:11 51°13.9 2°49.559 11.9179 3.568114 29.45881 -2.871232
2007-04-17 09:21:16 51°13.899 2°49.552 11.9234 3.568114 29.45881 -2.871232
2007-04-17 09:21:21 51°13.898 2°49.545 11.9145 3.568217 29.457616 -2.871232
2007-04-17 09:21:26 51°13.897 2°49.538 11.9044 3.568114 29.455239 -2.871232
2007-04-17 09:21:31 51°13.895 2°49.531 11.9182 3.568528 29.461178 -2.871232
2007-04-17 09:21:36 51°13.894 2°49.524 11.9122 3.568528 29.463321 -2.871232
2007-04-17 09:21:41 51°13.892 2°49.517 11.9118 3.568321 29.463566 -2.871232
2007-04-17 09:21:46 51°13.891 2°49.51 11.9243 3.568321 29.463566 -2.871232
2007-04-17 09:21:51 51°13.889 2°49.503 11.8984 3.568321 29.461423 -2.871232
2007-04-17 09:21:56 51°13.887 2°49.496 11.9073 3.568424 29.461657 -2.871232
2007-04-17 09:22:01 51°13.886 2°49.488 11.9162 3.568424 29.463086 -2.871232
2007-04-17 09:22:06 51°13.884 2°49.481 11.909 3.568217 29.461188 -2.871232
2007-04-17 09:22:11 51°13.882 2°49.474 11.9117 3.568321 29.462137 -2.871232
2007-04-17 09:22:16 51°13.88 2°49.466 11.9077 3.568321 29.462137 -2.871232
2007-04-17 09:22:21 51°13.879 2°49.459 11.9117 3.568321 29.462852 -2.871232
2007-04-17 09:22:26 51°13.877 2°49.451 11.9114 3.568217 29.464046 -2.871232
2007-04-17 09:22:31 51°13.875 2°49.444 11.9096 3.56801 29.461433 -2.871232
2007-04-17 09:22:36 51°13.874 2°49.436 11.8952 3.568321 29.462852 -2.871232
2007-04-17 09:22:41 51°13.872 2°49.429 11.9134 3.568114 29.460239 -2.871232
2007-04-17 09:22:46 51°13.87 2°49.421 11.9291 3.568114 29.460239 -2.871232
2007-04-17 09:22:51 51°13.869 2°49.414 11.9237 3.568321 29.463566 -2.871232
2007-04-17 09:22:56 51°13.867 2°49.407 11.8982 3.568528 29.466894 -2.871232
2007-04-17 09:23:01 51°13.866 2°49.4 11.8905 3.568217 29.465476 -2.871232
2007-04-17 09:23:06 51°13.864 2°49.393 11.8897 3.568528 29.471183 -2.871232
2007-04-17 09:23:11 51°13.863 2°49.385 11.8883 3.568321 29.468569 -2.871232
2007-04-17 09:23:16 51°13.861 2°49.378 11.9008 3.568321 29.468569 -2.871232
2007-04-17 09:23:21 51°13.86 2°49.371 11.889 3.568424 29.46666 -2.871232
2007-04-17 09:23:26 51°13.858 2°49.364 11.8904 3.568321 29.46571 -2.871232
2007-04-17 09:23:31 51°13.857 2°49.357 11.888 3.568632 29.472132 -2.871232
2007-04-17 09:23:36 51°13.855 2°49.35 11.8917 3.568528 29.474758 -2.871232
2007-04-17 09:23:41 51°13.853 2°49.343 11.8867 3.568528 29.478334 -2.871232
2007-04-17 09:23:46 51°13.851 2°49.336 11.8886 3.568528 29.478334 -2.871232
2007-04-17 09:23:51 51°13.85 2°49.329 11.8763 3.568114 29.474535 -2.871232
2007-04-17 09:23:56 51°13.848 2°49.323 11.8838 3.568425 29.4781 -2.871232
2007-04-17 09:24:01 51°13.846 2°49.316 11.8765 3.568217 29.477631 -2.871232
2007-04-17 09:24:06 51°13.844 2°49.309 11.8851 3.56801 29.477877 -2.871232
2007-04-17 09:24:11 51°13.842 2°49.302 11.9052 3.568114 29.479543 -2.871232
2007-04-17 09:24:16 51°13.84 2°49.296 11.8837 3.568114 29.479543 -2.871232
2007-04-17 09:24:21 51°13.838 2°49.289 11.8774 3.56801 29.480739 -2.871232
2007-04-17 09:24:26 51°13.836 2°49.282 11.8841 3.567803 29.479555 -2.871232
2007-04-17 09:24:31 51°13.833 2°49.276 11.8776 3.567907 29.481936 -2.871232
2007-04-17 09:24:36 51°13.831 2°49.269 11.8858 3.567803 29.483133 -2.871232
2007-04-17 09:24:41 51°13.829 2°49.262 11.8865 3.567596 29.47694 -2.871232
2007-04-17 09:24:46 51°13.827 2°49.256 11.9041 3.567596 29.47694 -2.871232
2007-04-17 09:24:51 51°13.825 2°49.249 11.8931 3.567492 29.475275 -2.871232
2007-04-17 09:24:56 51°13.823 2°49.242 11.8853 3.5677 29.479321 -2.871232
2007-04-17 09:25:01 51°13.821 2°49.236 11.8897 3.567907 29.482652 -2.871232
2007-04-17 09:25:06 51°13.818 2°49.229 11.8971 3.56801 29.484317 -2.871232
2007-04-17 09:25:11 51°13.816 2°49.223 11.9091 3.5677 29.479321 -2.871232
2007-04-17 09:25:16 51°13.814 2°49.216 11.8973 3.5677 29.479321 -2.871232
2007-04-17 09:25:21 51°13.812 2°49.209 11.8928 3.567492 29.473129 -2.871232
2007-04-17 09:25:26 51°13.809 2°49.203 11.9089 3.5677 29.475744 -2.871232
2007-04-17 09:25:31 51°13.807 2°49.196 11.9032 3.56801 29.478593 -2.871232
2007-04-17 09:25:36 51°13.805 2°49.19 11.9023 3.567803 29.478124 -2.871232
2007-04-17 09:25:41 51°13.802 2°49.183 11.9108 3.567492 29.473844 -2.871232
2007-04-17 09:25:46 51°13.8 2°49.176 11.9094 3.567492 29.473844 -2.871232
2007-04-17 09:25:51 51°13.797 2°49.17 11.9078 3.567803 29.476693 -2.871232
2007-04-17 09:25:56 51°13.795 2°49.163 11.9052 3.567803 29.475263 -2.871232
2007-04-17 09:26:01 51°13.792 2°49.157 11.8997 3.5677 29.471452 -2.871232
2007-04-17 09:26:06 51°13.789 2°49.15 11.9041 3.5677 29.471452 -2.871232
2007-04-17 09:26:11 51°13.787 2°49.144 11.899 3.567803 29.470972 -2.871232
2007-04-17 09:26:16 51°13.785 2°49.137 11.9033 3.567803 29.470972 -2.871232
2007-04-17 09:26:21 51°13.782 2°49.13 11.89 3.567803 29.468112 -2.871232
2007-04-17 09:26:26 51°13.78 2°49.124 11.8944 3.567803 29.465967 -2.871232
2007-04-17 09:26:31 51°13.777 2°49.117 11.8923 3.567907 29.469061 -2.871232
2007-04-17 09:26:36 51°13.775 2°49.11 11.8985 3.56801 29.471441 -2.871232
2007-04-17 09:26:41 51°13.772 2°49.104 11.9019 3.568217 29.47334 -2.871232
2007-04-17 09:26:46 51°13.77 2°49.097 11.9113 3.568217 29.47334 -2.871232
2007-04-17 09:26:51 51°13.768 2°49.09 11.922 3.568425 29.4781 -2.871232
2007-04-17 09:26:56 51°13.765 2°49.084 11.913 3.568321 29.478581 -2.871232
2007-04-17 09:27:01 51°13.763 2°49.077 11.9155 3.568114 29.475966 -2.871232
2007-04-17 09:27:06 51°13.761 2°49.071 11.9052 3.56801 29.475732 -2.871232
2007-04-17 09:27:11 51°13.758 2°49.064 11.9064 3.567907 29.473351 -2.871232
2007-04-17 09:27:17 51°13.756 2°49.056 11.9134 3.567907 29.473351 -2.871232
2007-04-17 09:27:21 51°13.754 2°49.051 11.9104 3.567699 29.467877 -2.871232
2007-04-17 09:27:26 51°13.752 2°49.044 11.9069 3.567803 29.465252 -2.871232
2007-04-17 09:27:31 51°13.749 2°49.038 11.9258 3.567699 29.463588 -2.871232
2007-04-17 09:27:36 51°13.747 2°49.031 11.9117 3.56801 29.466436 -2.871232
2007-04-17 09:27:41 51°13.745 2°49.025 11.9256 3.567699 29.464303 -2.871232
2007-04-17 09:27:46 51°13.743 2°49.018 11.9059 3.567699 29.464303 -2.871232
2007-04-17 09:27:51 51°13.741 2°49.011 11.9129 3.567907 29.464772 -2.871232
2007-04-17 09:27:56 51°13.739 2°49.005 11.9132 3.567596 29.461924 -2.871232
2007-04-17 09:28:01 51°13.737 2°48.998 11.9099 3.567803 29.464537 -2.871232
2007-04-17 09:28:06 51°13.735 2°48.991 11.9127 3.56801 29.464292 -2.871232
2007-04-17 09:28:11 51°13.733 2°48.985 11.918 3.567699 29.4593 -2.871232
2007-04-17 09:28:16 51°13.731 2°48.978 11.9094 3.567699 29.4593 -2.871232
2007-04-17 09:28:21 51°13.729 2°48.972 11.9158 3.567907 29.462628 -2.871232
2007-04-17 09:28:26 51°13.728 2°48.965 11.9152 3.56801 29.465721 -2.871232
2007-04-17 09:28:31 51°13.725 2°48.958 11.9155 3.568217 29.468335 -2.871232
2007-04-17 09:28:36 51°13.724 2°48.952 11.9089 3.568217 29.46762 -2.871232
2007-04-17 09:28:41 51°13.722 2°48.945 11.9158 3.568114 29.467385 -2.871232
2007-04-17 09:28:46 51°13.72 2°48.938 11.9059 3.568114 29.467385 -2.871232
2007-04-17 09:28:51 51°13.718 2°48.932 11.9035 3.56801 29.465721 -2.871232
2007-04-17 09:28:56 51°13.716 2°48.925 11.8996 3.568217 29.466905 -2.871232
2007-04-17 09:29:01 51°13.714 2°48.919 11.9185 3.567803 29.463108 -2.871232
2007-04-17 09:29:06 51°13.711 2°48.912 11.9067 3.56801 29.465721 -2.871232
2007-04-17 09:29:11 51°13.709 2°48.906 11.9264 3.567907 29.464057 -2.871232
2007-04-17 09:29:16 51°13.707 2°48.899 11.9311 3.567907 29.464057 -2.871232
2007-04-17 09:29:21 51°13.705 2°48.893 11.9207 3.56801 29.465007 -2.871232
2007-04-17 09:29:26 51°13.703 2°48.886 11.9291 3.56801 29.466436 -2.871232
2007-04-17 09:29:31 51°13.701 2°48.879 11.9127 3.567699 29.465018 -2.871232
2007-04-17 09:29:36 51°13.699 2°48.873 11.9081 3.567803 29.465252 -2.871232
2007-04-17 09:29:41 51°13.697 2°48.867 11.9202 3.567699 29.461444 -2.871232
2007-04-17 09:29:46 51°13.695 2°48.86 11.9111 3.567699 29.461444 -2.871232
2007-04-17 09:29:51 51°13.693 2°48.854 11.906 3.567492 29.455973 -2.871232
2007-04-17 09:29:56 51°13.691 2°48.847 11.9119 3.567803 29.455249 -2.871232
2007-04-17 09:30:01 51°13.689 2°48.84 11.9271 3.568217 29.459759 -2.871232
2007-04-17 09:30:06 51°13.687 2°48.834 11.9097 3.566767 29.450043 -2.871232
2007-04-17 09:30:11 51°13.685 2°48.827 11.9179 3.566664 29.449808 -2.871232
2007-04-17 09:30:16 51°13.683 2°48.821 11.9181 3.566664 29.449808 -2.871232
2007-04-17 09:30:21 51°13.68 2°48.814 11.9192 3.567596 29.459066 -2.871232
2007-04-17 09:30:26 51°13.678 2°48.807 11.9164 3.566974 29.455514 -2.871232
2007-04-17 09:30:31 51°13.676 2°48.801 11.9101 3.56801 29.465007 -2.871232
2007-04-17 09:30:36 51°13.674 2°48.794 11.9123 3.56656 29.451717 -2.871232
2007-04-17 09:30:41 51°13.672 2°48.788 11.9275 3.565731 29.443409 -2.871232
2007-04-17 09:30:46 51°13.67 2°48.781 11.9158 3.565731 29.443409 -2.871232
2007-04-17 09:30:51 51°13.668 2°48.775 11.9098 3.56656 29.450288 -2.871232
2007-04-17 09:30:56 51°13.665 2°48.768 11.9124 3.566146 29.445063 -2.871232
2007-04-17 09:31:01 51°13.663 2°48.762 11.9082 3.566871 29.451707 -2.871232
2007-04-17 09:31:06 51°13.661 2°48.755 11.9136 3.566767 29.449329 -2.871232
2007-04-17 09:31:11 51°13.659 2°48.749 11.9141 3.566456 29.445054 -2.871232
2007-04-17 09:31:16 51°13.657 2°48.742 11.9082 3.566456 29.445054 -2.871232
2007-04-17 09:31:21 51°13.655 2°48.735 11.9105 3.56801 29.461433 -2.871232
2007-04-17 09:31:26 51°13.652 2°48.729 11.912 3.568114 29.465241 -2.871232
2007-04-17 09:31:31 51°13.65 2°48.722 11.9042 3.568114 29.466671 -2.871232
2007-04-17 09:31:36 51°13.648 2°48.716 11.9211 3.567699 29.463588 -2.871232
2007-04-17 09:31:41 51°13.646 2°48.71 11.9091 3.567182 29.458127 -2.871232
2007-04-17 09:31:46 51°13.643 2°48.703 11.9141 3.567182 29.458127 -2.871232
2007-04-17 09:31:51 51°13.641 2°48.697 11.918 3.567492 29.461689 -2.871232
2007-04-17 09:31:56 51°13.638 2°48.69 11.9043 3.567699 29.464303 -2.871232
2007-04-17 09:32:01 51°13.636 2°48.684 11.9075 3.567596 29.464068 -2.871232
2007-04-17 09:32:06 51°13.634 2°48.678 11.9081 3.567285 29.461935 -2.871232
2007-04-17 09:32:11 51°13.631 2°48.672 11.9006 3.567389 29.462884 -2.871232
2007-04-17 09:32:16 51°13.629 2°48.665 11.9172 3.567389 29.462884 -2.871232
2007-04-17 09:32:21 51°13.626 2°48.659 11.9075 3.567285 29.460505 -2.871232
2007-04-17 09:32:26 51°13.624 2°48.653 11.9077 3.567078 29.458607 -2.871232
2007-04-17 09:32:31 51°13.621 2°48.647 11.9178 3.567492 29.463834 -2.871232
2007-04-17 09:32:36 51°13.618 2°48.64 11.9045 3.566767 29.457902 -2.871232
2007-04-17 09:32:41 51°13.616 2°48.634 11.9092 3.567699 29.467877 -2.871232
2007-04-17 09:32:46 51°13.613 2°48.628 11.9046 3.567699 29.467877 -2.871232
2007-04-17 09:32:51 51°13.61 2°48.622 11.9067 3.567389 29.465743 -2.871232
2007-04-17 09:32:56 51°13.608 2°48.616 11.903 3.567285 29.464079 -2.871232
2007-04-17 09:33:01 51°13.605 2°48.61 11.915 3.567285 29.46265 -2.871232
2007-04-17 09:33:06 51°13.602 2°48.603 11.8928 3.567699 29.464303 -2.871232
2007-04-17 09:33:11 51°13.599 2°48.597 11.9084 3.567596 29.464068 -2.871232
2007-04-17 09:33:16 51°13.596 2°48.591 11.8978 3.567596 29.464068 -2.871232
2007-04-17 09:33:21 51°13.594 2°48.585 11.8975 3.567285 29.46122 -2.871232
2007-04-17 09:33:26 51°13.591 2°48.579 11.9048 3.567699 29.465018 -2.871232
2007-04-17 09:33:31 51°13.588 2°48.573 11.9058 3.567803 29.466682 -2.871232
2007-04-17 09:33:36 51°13.585 2°48.567 11.9018 3.567907 29.469061 -2.871232
2007-04-17 09:33:41 51°13.582 2°48.561 11.905 3.567492 29.466693 -2.871232
2007-04-17 09:33:46 51°13.58 2°48.555 11.8961 3.567492 29.466693 -2.871232
2007-04-17 09:33:51 51°13.577 2°48.549 11.892 3.567596 29.466928 -2.871232
2007-04-17 09:33:56 51°13.574 2°48.543 11.9008 3.5677 29.470022 -2.871232
2007-04-17 09:34:01 51°13.571 2°48.537 11.8973 3.567907 29.473351 -2.871232
2007-04-17 09:34:06 51°13.568 2°48.531 11.8931 3.5677 29.470737 -2.871232
2007-04-17 09:34:11 51°13.565 2°48.525 11.8951 3.5677 29.470022 -2.871232
2007-04-17 09:34:16 51°13.562 2°48.519 11.8934 3.5677 29.470022 -2.871232
2007-04-17 09:34:21 51°13.559 2°48.513 11.9047 3.567803 29.473117 -2.871232
2007-04-17 09:34:26 51°13.557 2°48.507 11.9003 3.567803 29.475978 -2.871232
2007-04-17 09:34:31 51°13.554 2°48.501 11.9016 3.567907 29.475497 -2.871232
2007-04-17 09:34:36 51°13.551 2°48.495 11.8898 3.567803 29.473832 -2.871232
2007-04-17 09:34:41 51°13.548 2°48.489 11.885 3.567803 29.475263 -2.871232
2007-04-17 09:34:46 51°13.545 2°48.483 11.8793 3.567803 29.475263 -2.871232
2007-04-17 09:34:51 51°13.543 2°48.476 11.8891 3.56801 29.479308 -2.871232
2007-04-17 09:34:56 51°13.54 2°48.47 11.8922 3.567803 29.477409 -2.871232
2007-04-17 09:35:01 51°13.538 2°48.464 11.8899 3.567596 29.475509 -2.871232
2007-04-17 09:35:06 51°13.535 2°48.458 11.8878 3.567803 29.47884 -2.871232
2007-04-17 09:35:11 51°13.532 2°48.451 11.9007 3.56801 29.483602 -2.871232
2007-04-17 09:35:16 51°13.53 2°48.445 11.8854 3.56801 29.483602 -2.871232
2007-04-17 09:35:21 51°13.527 2°48.439 11.8998 3.567907 29.484799 -2.871232
2007-04-17 09:35:26 51°13.525 2°48.433 11.8943 3.567389 29.480049 -2.871232
2007-04-17 09:35:31 51°13.522 2°48.427 11.8815 3.567596 29.480518 -2.871232
2007-04-17 09:35:36 51°13.52 2°48.421 11.8843 3.567493 29.479568 -2.871232
2007-04-17 09:35:41 51°13.517 2°48.415 11.8864 3.567493 29.478137 -2.871232
2007-04-17 09:35:46 51°13.515 2°48.408 11.8792 3.567493 29.478137 -2.871232
2007-04-17 09:35:51 51°13.512 2°48.402 11.892 3.567078 29.473622 -2.871232
2007-04-17 09:35:56 51°13.51 2°48.396 11.8875 3.567389 29.475756 -2.871232
2007-04-17 09:36:01 51°13.507 2°48.39 11.883 3.567493 29.478852 -2.871232
2007-04-17 09:36:06 51°13.505 2°48.383 11.8794 3.567078 29.476483 -2.871232
2007-04-17 09:36:11 51°13.503 2°48.377 11.8896 3.566042 29.4677 -2.871232
2007-04-17 09:36:16 51°13.5 2°48.371 11.8861 3.566042 29.4677 -2.871232
2007-04-17 09:36:21 51°13.498 2°48.365 11.8914 3.566664 29.47483 -2.871232
2007-04-17 09:36:26 51°13.496 2°48.358 11.879 3.566975 29.476965 -2.871232
2007-04-17 09:36:31 51°13.494 2°48.352 11.8734 3.567389 29.480049 -2.871232
2007-04-17 09:36:36 51°13.491 2°48.345 11.8719 3.5677 29.48433 -2.871232
2007-04-17 09:36:41 51°13.489 2°48.339 11.8845 3.567285 29.48053 -2.871232
2007-04-17 09:36:46 51°13.487 2°48.333 11.8753 3.567285 29.48053 -2.871232
2007-04-17 09:36:51 51°13.485 2°48.327 11.8904 3.567389 29.480049 -2.871232
2007-04-17 09:36:56 51°13.483 2°48.321 11.8838 3.567596 29.48338 -2.871232
2007-04-17 09:37:01 51°13.481 2°48.315 11.8792 3.567803 29.488144 -2.871232
2007-04-17 09:37:06 51°13.479 2°48.308 11.8795 3.567907 29.491958 -2.871232
2007-04-17 09:37:11 51°13.476 2°48.302 11.8846 3.567493 29.486725 -2.871232
2007-04-17 09:37:16 51°13.475 2°48.295 11.8817 3.567493 29.486725 -2.871232
2007-04-17 09:37:21 51°13.473 2°48.289 11.8806 3.567389 29.485775 -2.871232
2007-04-17 09:37:26 51°13.471 2°48.282 11.8702 3.567285 29.483393 -2.871232
2007-04-17 09:37:31 51°13.469 2°48.276 11.8675 3.567493 29.486725 -2.871232
2007-04-17 09:37:36 51°13.467 2°48.27 11.8728 3.567493 29.487441 -2.871232
2007-04-17 09:37:41 51°13.465 2°48.264 11.8712 3.567493 29.487441 -2.871232
2007-04-17 09:37:46 51°13.463 2°48.257 11.8773 3.567493 29.487441 -2.871232
2007-04-17 09:37:51 51°13.461 2°48.251 11.8808 3.567389 29.486491 -2.871232
2007-04-17 09:37:56 51°13.459 2°48.245 11.8695 3.567596 29.489823 -2.871232
2007-04-17 09:38:01 51°13.457 2°48.238 11.873 3.567596 29.491972 -2.871232
2007-04-17 09:38:06 51°13.455 2°48.232 11.8694 3.567493 29.49317 -2.871232
2007-04-17 09:38:11 51°13.454 2°48.225 11.8748 3.5677 29.496504 -2.871232
2007-04-17 09:38:16 51°13.452 2°48.219 11.8699 3.5677 29.496504 -2.871232
2007-04-17 09:38:21 51°13.45 2°48.213 11.8622 3.567596 29.494837 -2.871232
2007-04-17 09:38:26 51°13.448 2°48.206 11.8558 3.567389 29.49222 -2.871232
2007-04-17 09:38:31 51°13.447 2°48.2 11.8606 3.567182 29.491752 -2.871232
2007-04-17 09:38:36 51°13.445 2°48.193 11.8566 3.567493 29.495319 -2.871232
2007-04-17 09:38:41 51°13.443 2°48.187 11.8681 3.567389 29.494369 -2.871232
2007-04-17 09:38:46 51°13.441 2°48.18 11.8618 3.567389 29.494369 -2.871232
2007-04-17 09:38:51 51°13.44 2°48.174 11.8689 3.562935 29.452789 -2.871232
2007-04-17 09:38:56 51°13.438 2°48.168 11.8676 3.567596 29.497703 -2.871232
2007-04-17 09:39:01 51°13.436 2°48.162 11.8844 3.567493 29.501768 -2.871232
2007-04-17 09:39:06 51°13.434 2°48.155 11.8698 3.567389 29.501534 -2.871232
2007-04-17 09:39:11 51°13.433 2°48.149 11.8611 3.567596 29.502002 -2.871232
2007-04-17 09:39:16 51°13.431 2°48.143 11.8735 3.567596 29.502002 -2.871232
2007-04-17 09:39:21 51°13.429 2°48.136 11.8588 3.567493 29.500335 -2.871232
2007-04-17 09:39:26 51°13.428 2°48.13 11.8557 3.567389 29.499384 -2.871232
2007-04-17 09:39:31 51°13.426 2°48.123 11.8638 3.567286 29.497 -2.871232
2007-04-17 09:39:36 51°13.424 2°48.117 11.8605 3.567182 29.494617 -2.871232
2007-04-17 09:39:41 51°13.423 2°48.111 11.8628 3.567389 29.498668 -2.871232
2007-04-17 09:39:46 51°13.421 2°48.105 11.8574 3.567389 29.498668 -2.871232
2007-04-17 09:39:51 51°13.42 2°48.098 11.8683 3.567182 29.494617 -2.871232
2007-04-17 09:39:56 51°13.418 2°48.092 11.8611 3.567182 29.496766 -2.871232
2007-04-17 09:40:01 51°13.416 2°48.086 11.8874 3.567389 29.500817 -2.871232
2007-04-17 09:40:06 51°13.415 2°48.079 11.8698 3.567389 29.500817 -2.871232
2007-04-17 09:40:11 51°13.414 2°48.073 11.8705 3.567286 29.502017 -2.871232
2007-04-17 09:40:16 51°13.412 2°48.067 11.8692 3.567286 29.502017 -2.871232
2007-04-17 09:40:21 51°13.41 2°48.06 11.8718 3.567286 29.502734 -2.871232
2007-04-17 09:40:26 51°13.409 2°48.054 11.873 3.567182 29.499633 -2.871232
2007-04-17 09:40:31 51°13.408 2°48.048 11.8596 3.566871 29.493198 -2.871232
2007-04-17 09:40:36 51°13.406 2°48.041 11.8817 3.566871 29.490333 -2.871232
2007-04-17 09:40:41 51°13.405 2°48.035 11.8792 3.566975 29.493432 -2.871232
2007-04-17 09:40:46 51°13.403 2°48.029 11.8729 3.566975 29.493432 -2.871232
2007-04-17 09:40:51 51°13.402 2°48.022 11.8651 3.566975 29.494149 -2.871232
2007-04-17 09:40:56 51°13.401 2°48.016 11.8582 3.566871 29.492482 -2.871232
2007-04-17 09:41:01 51°13.4 2°48.01 11.86 3.566975 29.493432 -2.871232
2007-04-17 09:41:06 51°13.399 2°48.004 11.8631 3.566768 29.48795 -2.871232
2007-04-17 09:41:11 51°13.398 2°47.997 11.878 3.566975 29.487702 -2.871232
2007-04-17 09:41:16 51°13.397 2°47.991 11.8694 3.566975 29.487702 -2.871232
2007-04-17 09:41:21 51°13.396 2°47.985 11.8716 3.567286 29.492702 -2.871232
2007-04-17 09:41:26 51°13.395 2°47.979 11.8713 3.567182 29.495333 -2.871232
2007-04-17 09:41:31 51°13.395 2°47.973 11.8705 3.567079 29.496532 -2.871232
2007-04-17 09:41:36 51°13.394 2°47.967 11.8698 3.567182 29.497483 -2.871232
2007-04-17 09:41:41 51°13.393 2°47.961 11.8719 3.566975 29.493432 -2.871232
2007-04-17 09:41:46 51°13.392 2°47.956 11.8622 3.566975 29.493432 -2.871232
2007-04-17 09:41:51 51°13.392 2°47.95 11.866 3.567286 29.494851 -2.871232
2007-04-17 09:41:56 51°13.391 2°47.944 11.8761 3.567182 29.495333 -2.871232
2007-04-17 09:42:01 51°13.39 2°47.938 11.8723 3.567079 29.495099 -2.871232
2007-04-17 09:42:06 51°13.39 2°47.932 11.8611 3.567079 29.494383 -2.871232
2007-04-17 09:42:11 51°13.389 2°47.926 11.8631 3.566975 29.492716 -2.871232
2007-04-17 09:42:16 51°13.388 2°47.921 11.8665 3.566975 29.492716 -2.871232
2007-04-17 09:42:21 51°13.388 2°47.915 11.8622 3.566975 29.492716 -2.871232
2007-04-17 09:42:26 51°13.387 2°47.909 11.8754 3.566871 29.492482 -2.871232
2007-04-17 09:42:31 51°13.386 2°47.904 11.8595 3.566871 29.491766 -2.871232
2007-04-17 09:42:36 51°13.386 2°47.898 11.8618 3.566768 29.491531 -2.871232
2007-04-17 09:42:41 51°13.385 2°47.892 11.8671 3.566871 29.493915 -2.871232
2007-04-17 09:42:46 51°13.385 2°47.886 11.8684 3.566871 29.493915 -2.871232
2007-04-17 09:42:51 51°13.384 2°47.881 11.8637 3.566664 29.491297 -2.871232
2007-04-17 09:42:56 51°13.384 2°47.875 11.8682 3.566768 29.492248 -2.871232
2007-04-17 09:43:01 51°13.383 2°47.87 11.864 3.566664 29.490581 -2.871232
2007-04-17 09:43:06 51°13.383 2°47.864 11.8632 3.566664 29.491297 -2.871232
2007-04-17 09:43:11 51°13.383 2°47.859 11.8653 3.566561 29.491779 -2.871232
2007-04-17 09:43:16 51°13.383 2°47.854 11.8589 3.566561 29.491779 -2.871232
2007-04-17 09:43:21 51°13.383 2°47.849 11.8665 3.566768 29.493681 -2.871232
2007-04-17 09:43:26 51°13.383 2°47.844 11.8593 3.566768 29.492964 -2.871232
2007-04-17 09:43:31 51°13.383 2°47.839 11.8696 3.566768 29.492964 -2.871232
2007-04-17 09:43:36 51°13.383 2°47.834 11.8615 3.566975 29.495582 -2.871232
2007-04-17 09:43:41 51°13.383 2°47.829 11.8642 3.566768 29.493681 -2.871232
2007-04-17 09:43:46 51°13.383 2°47.825 11.8593 3.566768 29.493681 -2.871232
2007-04-17 09:43:51 51°13.383 2°47.82 11.8665 3.566768 29.493681 -2.871232
2007-04-17 09:43:56 51°13.384 2°47.815 11.8669 3.566664 29.49273 -2.871232
2007-04-17 09:44:01 51°13.384 2°47.811 11.8737 3.566664 29.49273 -2.871232
2007-04-17 09:44:06 51°13.385 2°47.806 11.8616 3.566664 29.493447 -2.871232
2007-04-17 09:44:11 51°13.385 2°47.802 11.8596 3.566353 29.490595 -2.871232
2007-04-17 09:44:16 51°13.385 2°47.798 11.8675 3.566353 29.490595 -2.871232
2007-04-17 09:44:21 51°13.386 2°47.794 11.8622 3.566146 29.488694 -2.871232
2007-04-17 09:44:26 51°13.386 2°47.79 11.8532 3.566146 29.488694 -2.871232
2007-04-17 09:44:31 51°13.386 2°47.786 11.8483 3.566146 29.488694 -2.871232
2007-04-17 09:44:36 51°13.386 2°47.783 11.8536 3.566146 29.487977 -2.871232
2007-04-17 09:44:41 51°13.386 2°47.779 11.8564 3.56625 29.490361 -2.871232
2007-04-17 09:44:46 51°13.386 2°47.776 11.8603 3.56625 29.490361 -2.871232
2007-04-17 09:44:51 51°13.386 2°47.772 11.8541 3.56625 29.490361 -2.871232
2007-04-17 09:44:56 51°13.386 2°47.769 11.859 3.566354 29.492744 -2.871232
2007-04-17 09:45:01 51°13.386 2°47.766 11.8549 3.566457 29.497995 -2.871232
2007-04-17 09:45:06 51°13.386 2°47.763 11.8396 3.566146 29.496576 -2.871232
2007-04-17 09:45:11 51°13.386 2°47.76 11.8449 3.566043 29.496342 -2.871232
2007-04-17 09:45:17 51°13.385 2°47.756 11.8416 3.566043 29.496342 -2.871232
2007-04-17 09:45:21 51°13.385 2°47.754 11.839 3.566043 29.497059 -2.871232
2007-04-17 09:45:26 51°13.385 2°47.751 11.8461 3.565939 29.496108 -2.871232
2007-04-17 09:45:31 51°13.384 2°47.748 11.8415 3.566043 29.497059 -2.871232
2007-04-17 09:45:36 51°13.384 2°47.745 11.8386 3.566043 29.499209 -2.871232
2007-04-17 09:45:41 51°13.383 2°47.742 11.8409 3.566043 29.502794 -2.871232
2007-04-17 09:45:46 51°13.383 2°47.739 11.8461 3.566043 29.502794 -2.871232
2007-04-17 09:45:51 51°13.383 2°47.737 11.8374 3.565836 29.502326 -2.871232
2007-04-17 09:45:56 51°13.382 2°47.734 11.8343 3.565732 29.504244 -2.871232
2007-04-17 09:46:01 51°13.381 2°47.732 11.8363 3.565629 29.502575 -2.871232
2007-04-17 09:46:06 51°13.381 2°47.73 11.8419 3.565525 29.502341 -2.871232
2007-04-17 09:46:11 51°13.38 2°47.727 11.8503 3.565525 29.502341 -2.871232
2007-04-17 09:46:16 51°13.38 2°47.725 11.8476 3.565525 29.502341 -2.871232
2007-04-17 09:46:21 51°13.379 2°47.722 11.8461 3.565525 29.500907 -2.871232
2007-04-17 09:46:26 51°13.378 2°47.72 11.8571 3.565629 29.503293 -2.871232
2007-04-17 09:46:31 51°13.377 2°47.718 11.8418 3.565422 29.50139 -2.871232
2007-04-17 09:46:36 51°13.377 2°47.715 11.8385 3.565422 29.50139 -2.871232
2007-04-17 09:46:41 51°13.376 2°47.713 11.8404 3.565214 29.498054 -2.871232
2007-04-17 09:46:46 51°13.375 2°47.711 11.8283 3.565214 29.498054 -2.871232
2007-04-17 09:46:51 51°13.374 2°47.709 11.8308 3.563868 29.484973 -2.871232
2007-04-17 09:46:56 51°13.373 2°47.707 11.8363 3.563868 29.48354 -2.871232
2007-04-17 09:47:01 51°13.373 2°47.705 11.851 3.565007 29.494001 -2.871232
2007-04-17 09:47:06 51°13.372 2°47.703 11.8366 3.565111 29.496386 -2.871232
2007-04-17 09:47:11 51°13.371 2°47.701 11.849 3.565111 29.49782 -2.871232
2007-04-17 09:47:17 51°13.37 2°47.698 11.834 3.565111 29.49782 -2.871232
2007-04-17 09:47:21 51°13.369 2°47.697 11.8389 3.564904 29.498786 -2.871232
2007-04-17 09:47:26 51°13.368 2°47.694 11.8349 3.563764 29.491191 -2.871232
2007-04-17 09:47:31 51°13.367 2°47.692 11.8301 3.563143 29.484049 -2.871232
2007-04-17 09:47:36 51°13.367 2°47.689 11.8352 3.563972 29.490942 -2.871232
2007-04-17 09:47:41 51°13.367 2°47.686 11.8365 3.563868 29.489274 -2.871232
2007-04-17 09:47:46 51°13.367 2°47.683 11.8298 3.563868 29.489274 -2.871232
2007-04-17 09:47:51 51°13.367 2°47.679 11.8373 3.56335 29.485235 -2.871232
2007-04-17 09:47:56 51°13.368 2°47.675 11.8367 3.563143 29.484766 -2.871232
2007-04-17 09:48:01 51°13.369 2°47.671 11.8366 3.563661 29.490239 -2.871232
2007-04-17 09:48:06 51°13.37 2°47.667 11.8276 3.56335 29.48882 -2.871232
2007-04-17 09:48:11 51°13.373 2°47.663 11.8315 3.562832 29.484063 -2.871232
2007-04-17 09:48:16 51°13.375 2°47.659 11.829 3.562832 29.484063 -2.871232
2007-04-17 09:48:21 51°13.379 2°47.656 11.8352 3.564593 29.500235 -2.871232
2007-04-17 09:48:26 51°13.382 2°47.653 11.8336 3.564904 29.502372 -2.871232
2007-04-17 09:48:31 51°13.386 2°47.651 11.8326 3.564904 29.501655 -2.871232
2007-04-17 09:48:36 51°13.39 2°47.65 11.8419 3.565007 29.504041 -2.871232
2007-04-17 09:48:41 51°13.394 2°47.65 11.8434 3.564386 29.49905 -2.871232
2007-04-17 09:48:46 51°13.398 2°47.651 11.8496 3.564386 29.49905 -2.871232
2007-04-17 09:48:51 51°13.402 2°47.653 11.8383 3.565007 29.505476 -2.871232
2007-04-17 09:48:56 51°13.406 2°47.657 11.8304 3.565007 29.504041 -2.871232
2007-04-17 09:49:01 51°13.41 2°47.662 11.8371 3.564904 29.50309 -2.871232
2007-04-17 09:49:06 51°13.413 2°47.668 11.8423 3.5648 29.501421 -2.871232
2007-04-17 09:49:11 51°13.416 2°47.675 11.845 3.5648 29.497835 -2.871232
2007-04-17 09:49:16 51°13.418 2°47.683 11.8272 3.5648 29.497835 -2.871232
2007-04-17 09:49:21 51°13.419 2°47.692 11.8277 3.564489 29.491396 -2.871232
2007-04-17 09:49:26 51°13.42 2°47.702 11.8196 3.564697 29.494015 -2.871232
2007-04-17 09:49:31 51°13.419 2°47.712 11.8176 3.564697 29.496166 -2.871232
2007-04-17 09:49:36 51°13.418 2°47.723 11.8163 3.564593 29.495932 -2.871232
2007-04-17 09:49:41 51°13.417 2°47.734 11.8231 3.564489 29.494264 -2.871232
2007-04-17 09:49:46 51°13.417 2°47.747 11.8156 3.564489 29.494264 -2.871232
2007-04-17 09:49:51 51°13.417 2°47.762 11.8166 3.564489 29.495698 -2.871232
2007-04-17 09:49:56 51°13.418 2°47.777 11.8034 3.564489 29.499284 -2.871232
2007-04-17 09:50:01 51°13.421 2°47.793 11.8112 3.564179 29.501452 -2.871232
2007-04-17 09:50:06 51°13.424 2°47.81 11.8147 3.563765 29.501951 -2.871232
2007-04-17 09:50:11 51°13.426 2°47.829 11.8063 3.56335 29.500297 -2.871232
2007-04-17 09:50:16 51°13.429 2°47.847 11.8096 3.56335 29.500297 -2.871232
2007-04-17 09:50:21 51°13.433 2°47.867 11.8159 3.563143 29.501264 -2.871232
2007-04-17 09:50:26 51°13.436 2°47.888 11.8175 3.562833 29.50128 -2.871232
2007-04-17 09:50:31 51°13.438 2°47.909 11.8114 3.562625 29.501529 -2.871232
2007-04-17 09:50:36 51°13.441 2°47.93 11.8072 3.562522 29.500577 -2.871232
2007-04-17 09:50:41 51°13.444 2°47.952 11.8108 3.562418 29.500343 -2.871232
2007-04-17 09:50:46 51°13.447 2°47.974 11.8214 3.562418 29.500343 -2.871232
2007-04-17 09:50:51 51°13.45 2°47.995 11.817 3.562418 29.501061 -2.871232
2007-04-17 09:50:56 51°13.452 2°48.014 11.8126 3.562625 29.501529 -2.871232
2007-04-17 09:51:01 51°13.454 2°48.033 11.8163 3.562625 29.500094 -2.871232
2007-04-17 09:51:06 51°13.456 2°48.05 11.815 3.562729 29.501763 -2.871232
2007-04-17 09:51:11 51°13.457 2°48.065 11.8204 3.562625 29.501529 -2.871232
2007-04-17 09:51:16 51°13.457 2°48.08 11.8102 3.562625 29.501529 -2.871232
2007-04-17 09:51:21 51°13.456 2°48.093 11.8118 3.562522 29.498424 -2.871232
2007-04-17 09:51:26 51°13.455 2°48.106 11.8162 3.562418 29.496755 -2.871232
2007-04-17 09:51:31 51°13.453 2°48.117 11.8117 3.562315 29.495803 -2.871232
2007-04-17 09:51:36 51°13.451 2°48.128 11.8191 3.562315 29.495085 -2.871232
2007-04-17 09:51:41 51°13.448 2°48.138 11.8323 3.562211 29.492698 -2.871232
2007-04-17 09:51:46 51°13.446 2°48.147 11.823 3.562211 29.492698 -2.871232
2007-04-17 09:51:51 51°13.443 2°48.154 11.8091 3.562211 29.494851 -2.871232
2007-04-17 09:51:56 51°13.44 2°48.161 11.8051 3.562211 29.497722 -2.871232
2007-04-17 09:52:01 51°13.438 2°48.166 11.8088 3.561797 29.494632 -2.871232
2007-04-17 09:52:06 51°13.435 2°48.17 11.8088 3.561486 29.491776 -2.871232
2007-04-17 09:52:11 51°13.433 2°48.173 11.8069 3.561072 29.485817 -2.871232
2007-04-17 09:52:16 51°13.431 2°48.175 11.8176 3.561072 29.485817 -2.871232
2007-04-17 09:52:21 51°13.429 2°48.177 11.8121 3.560968 29.482713 -2.871232
2007-04-17 09:52:26 51°13.427 2°48.177 11.8192 3.560865 29.483196 -2.871232
2007-04-17 09:52:31 51°13.426 2°48.177 11.8169 3.560865 29.486065 -2.871232
2007-04-17 09:52:36 51°13.425 2°48.177 11.8329 3.560865 29.488935 -2.871232
2007-04-17 09:52:41 51°13.424 2°48.176 11.8264 3.560865 29.489653 -2.871232
2007-04-17 09:52:46 51°13.423 2°48.175 11.8263 3.560865 29.489653 -2.871232
2007-04-17 09:52:51 51°13.422 2°48.175 11.8344 3.560554 29.484645 -2.871232
2007-04-17 09:52:56 51°13.421 2°48.174 11.8316 3.560761 29.485113 -2.871232
2007-04-17 09:53:01 51°13.42 2°48.173 11.8223 3.560865 29.483196 -2.871232
2007-04-17 09:53:06 51°13.419 2°48.172 11.837 3.561072 29.48223 -2.871232
2007-04-17 09:53:11 51°13.417 2°48.172 11.8316 3.561279 29.481982 -2.871232
2007-04-17 09:53:16 51°13.416 2°48.171 11.8369 3.561279 29.481982 -2.871232
2007-04-17 09:53:21 51°13.415 2°48.17 11.8311 3.56159 29.484836 -2.871232
2007-04-17 09:53:26 51°13.414 2°48.17 11.8318 3.561693 29.484353 -2.871232
2007-04-17 09:53:31 51°13.413 2°48.169 11.8379 3.562004 29.485774 -2.871232
2007-04-17 09:53:36 51°13.412 2°48.168 11.834 3.562211 29.486242 -2.871232
2007-04-17 09:53:41 51°13.41 2°48.167 11.8381 3.562418 29.485994 -2.871232
2007-04-17 09:53:46 51°13.409 2°48.166 11.8373 3.562418 29.485994 -2.871232
2007-04-17 09:53:51 51°13.408 2°48.165 11.8384 3.562418 29.48456 -2.871232
2007-04-17 09:53:56 51°13.407 2°48.164 11.8262 3.562625 29.485746 -2.871232
2007-04-17 09:54:01 51°13.405 2°48.163 11.8308 3.562832 29.486931 -2.871232
2007-04-17 09:54:06 51°13.404 2°48.162 11.8322 3.563039 29.488834 -2.871232
2007-04-17 09:54:11 51°13.403 2°48.162 11.834 3.563039 29.4874 -2.871232
2007-04-17 09:54:16 51°13.401 2°48.161 11.8387 3.563039 29.4874 -2.871232
2007-04-17 09:54:21 51°13.4 2°48.16 11.8417 3.563247 29.487868 -2.871232
2007-04-17 09:54:26 51°13.399 2°48.159 11.8376 3.56335 29.488103 -2.871232
2007-04-17 09:54:31 51°13.398 2°48.158 11.8432 3.563557 29.492874 -2.871232
2007-04-17 09:54:37 51°13.396 2°48.157 11.8447 3.563454 29.492639 -2.871232
2007-04-17 09:54:41 51°13.395 2°48.157 11.8488 3.56335 29.491688 -2.871232
2007-04-17 09:54:46 51°13.393 2°48.156 11.8357 3.56335 29.491688 -2.871232
2007-04-17 09:54:51 51°13.392 2°48.155 11.8393 3.56335 29.490254 -2.871232
2007-04-17 09:54:56 51°13.391 2°48.154 11.8418 3.563247 29.487868 -2.871232
2007-04-17 09:55:01 51°13.389 2°48.153 11.8434 3.563247 29.487151 -2.871232
2007-04-17 09:55:06 51°13.388 2°48.153 11.8469 3.56335 29.487386 -2.871232
2007-04-17 09:55:11 51°13.386 2°48.152 11.8454 3.563247 29.483567 -2.871232
2007-04-17 09:55:16 51°13.385 2°48.152 11.8396 3.563247 29.483567 -2.871232
2007-04-17 09:55:21 51°13.383 2°48.151 11.8566 3.563557 29.487854 -2.871232
2007-04-17 09:55:26 51°13.382 2°48.15 11.8466 3.563661 29.488805 -2.871232
2007-04-17 09:55:31 51°13.38 2°48.149 11.8463 3.563661 29.488088 -2.871232
2007-04-17 09:55:36 51°13.379 2°48.149 11.8594 3.563661 29.487372 -2.871232
2007-04-17 09:55:41 51°13.378 2°48.148 11.8495 3.563868 29.48784 -2.871232
2007-04-17 09:55:46 51°13.376 2°48.147 11.8513 3.563868 29.48784 -2.871232
2007-04-17 09:55:51 51°13.375 2°48.147 11.8576 3.563972 29.489508 -2.871232
2007-04-17 09:55:56 51°13.373 2°48.146 11.8517 3.563971 29.487358 -2.871232
2007-04-17 09:56:01 51°13.372 2°48.146 11.8564 3.564075 29.487592 -2.871232
2007-04-17 09:56:06 51°13.37 2°48.146 11.8509 3.564075 29.485442 -2.871232
2007-04-17 09:56:11 51°13.369 2°48.145 11.8526 3.564179 29.484959 -2.871232
2007-04-17 09:56:16 51°13.367 2°48.145 11.8625 3.564179 29.484959 -2.871232
2007-04-17 09:56:21 51°13.366 2°48.144 11.8649 3.564386 29.486861 -2.871232
2007-04-17 09:56:26 51°13.365 2°48.144 11.8595 3.564386 29.486144 -2.871232
2007-04-17 09:56:31 51°13.363 2°48.144 11.8646 3.564386 29.485428 -2.871232
2007-04-17 09:56:36 51°13.362 2°48.143 11.8647 3.564489 29.487095 -2.871232
2007-04-17 09:56:41 51°13.36 2°48.143 11.8626 3.564593 29.48733 -2.871232
2007-04-17 09:56:46 51°13.359 2°48.143 11.8653 3.564593 29.48733 -2.871232
2007-04-17 09:56:51 51°13.357 2°48.144 11.867 3.564696 29.486131 -2.871232
2007-04-17 09:56:56 51°13.355 2°48.145 11.8672 3.5648 29.484932 -2.871232
2007-04-17 09:57:01 51°13.353 2°48.146 11.8703 3.564904 29.485166 -2.871232
2007-04-17 09:57:06 51°13.35 2°48.148 11.8768 3.565111 29.486351 -2.871232
2007-04-17 09:57:11 51°13.348 2°48.151 11.8839 3.565318 29.488253 -2.871232
2007-04-17 09:57:16 51°13.345 2°48.154 11.8715 3.565318 29.488253 -2.871232
2007-04-17 09:57:21 51°13.344 2°48.157 11.8786 3.565421 29.487771 -2.871232
2007-04-17 09:57:26 51°13.342 2°48.161 11.8687 3.565629 29.487523 -2.871232
2007-04-17 09:57:31 51°13.34 2°48.165 11.8629 3.565732 29.48704 -2.871232
2007-04-17 09:57:36 51°13.338 2°48.17 11.8681 3.565836 29.486558 -2.871232
2007-04-17 09:57:41 51°13.337 2°48.175 11.8665 3.565939 29.484644 -2.871232
2007-04-17 09:57:46 51°13.336 2°48.18 11.8712 3.565939 29.484644 -2.871232
2007-04-17 09:57:51 51°13.335 2°48.186 11.8665 3.566043 29.487027 -2.871232
2007-04-17 09:57:56 51°13.335 2°48.192 11.8769 3.566146 29.487977 -2.871232
2007-04-17 09:58:01 51°13.335 2°48.198 11.8716 3.56625 29.491077 -2.871232
2007-04-17 09:58:06 51°13.335 2°48.204 11.8716 3.56625 29.491077 -2.871232
2007-04-17 09:58:11 51°13.336 2°48.21 11.8644 3.56625 29.491077 -2.871232
2007-04-17 09:58:16 51°13.338 2°48.217 11.8628 3.56625 29.491077 -2.871232
2007-04-17 09:58:21 51°13.339 2°48.223 11.8675 3.566354 29.491311 -2.871232
2007-04-17 09:58:26 51°13.341 2°48.23 11.8571 3.566353 29.490595 -2.871232
2007-04-17 09:58:31 51°13.344 2°48.238 11.8614 3.566457 29.492262 -2.871232
2007-04-17 09:58:36 51°13.346 2°48.246 11.8557 3.566457 29.494411 -2.871232
2007-04-17 09:58:41 51°13.35 2°48.257 11.8539 3.566354 29.494894 -2.871232
2007-04-17 09:58:46 51°13.354 2°48.268 11.8584 3.566354 29.494894 -2.871232
2007-04-17 09:58:51 51°13.358 2°48.281 11.8616 3.566354 29.496327 -2.871232
2007-04-17 09:58:56 51°13.363 2°48.296 11.8579 3.566354 29.497761 -2.871232
2007-04-17 09:59:01 51°13.368 2°48.311 11.8591 3.566354 29.499194 -2.871232
2007-04-17 09:59:06 51°13.374 2°48.328 11.8607 3.566354 29.499911 -2.871232
2007-04-17 09:59:11 51°13.38 2°48.346 11.8539 3.566354 29.500628 -2.871232
2007-04-17 09:59:16 51°13.386 2°48.366 11.8594 3.566354 29.500628 -2.871232
2007-04-17 09:59:21 51°13.393 2°48.386 11.8642 3.566457 29.501579 -2.871232
2007-04-17 09:59:26 51°13.401 2°48.408 11.8655 3.566457 29.501579 -2.871232
2007-04-17 09:59:31 51°13.408 2°48.429 11.8677 3.566664 29.503481 -2.871232
2007-04-17 09:59:36 51°13.417 2°48.451 11.8689 3.566561 29.501813 -2.871232
2007-04-17 09:59:41 51°13.426 2°48.473 11.8625 3.566768 29.502998 -2.871232
2007-04-17 09:59:46 51°13.435 2°48.495 11.8625 3.566768 29.502998 -2.871232
2007-04-17 09:59:51 51°13.444 2°48.517 11.8717 3.566872 29.503949 -2.871232
2007-04-17 09:59:56 51°13.453 2°48.539 11.8735 3.566872 29.503232 -2.871232
2007-04-17 10:00:01 51°13.464 2°48.561 11.8698 3.566768 29.500847 -2.871232
2007-04-17 10:00:06 51°13.473 2°48.583 11.8681 3.566871 29.501081 -2.871232
2007-04-17 10:00:11 51°13.483 2°48.605 11.8795 3.566871 29.501798 -2.871232
2007-04-17 10:00:16 51°13.493 2°48.628 11.8732 3.566871 29.501798 -2.871232
2007-04-17 10:00:21 51°13.503 2°48.65 11.8782 3.566768 29.50013 -2.871232
2007-04-17 10:00:26 51°13.513 2°48.673 11.8932 3.566871 29.498214 -2.871232
2007-04-17 10:00:31 51°13.523 2°48.696 11.8883 3.566871 29.496064 -2.871232
2007-04-17 10:00:36 51°13.532 2°48.718 11.8792 3.566768 29.495114 -2.871232
2007-04-17 10:00:41 51°13.542 2°48.741 11.884 3.566871 29.494631 -2.871232
2007-04-17 10:00:46 51°13.552 2°48.763 11.8774 3.566871 29.494631 -2.871232
2007-04-17 10:00:51 51°13.563 2°48.786 11.8837 3.566871 29.493198 -2.871232
2007-04-17 10:00:56 51°13.573 2°48.809 11.8875 3.566768 29.488666 -2.871232
2007-04-17 10:01:01 51°13.583 2°48.831 11.886 3.566768 29.485086 -2.871232
2007-04-17 10:01:06 51°13.593 2°48.854 11.8911 3.566871 29.486036 -2.871232
2007-04-17 10:01:11 51°13.603 2°48.877 11.8947 3.566871 29.486752 -2.871232
2007-04-17 10:01:17 51°13.615 2°48.904 11.8931 3.566871 29.486752 -2.871232
2007-04-17 10:01:21 51°13.623 2°48.922 11.8978 3.566768 29.485802 -2.871232
2007-04-17 10:01:26 51°13.633 2°48.945 11.8997 3.566768 29.485086 -2.871232
2007-04-17 10:01:31 51°13.643 2°48.968 11.8998 3.566768 29.482938 -2.871232
2007-04-17 10:01:36 51°13.653 2°48.99 11.8979 3.566768 29.48079 -2.871232
2007-04-17 10:01:41 51°13.663 2°49.013 11.9058 3.566768 29.477927 -2.871232
2007-04-17 10:01:46 51°13.673 2°49.035 11.913 3.566768 29.477927 -2.871232
2007-04-17 10:01:51 51°13.682 2°49.059 11.9071 3.566871 29.47673 -2.871232
2007-04-17 10:01:56 51°13.692 2°49.081 11.91 3.566975 29.476249 -2.871232
2007-04-17 10:02:01 51°13.702 2°49.105 11.903 3.567078 29.475053 -2.871232
2007-04-17 10:02:06 51°13.712 2°49.128 11.9123 3.567078 29.474337 -2.871232
2007-04-17 10:02:11 51°13.722 2°49.151 11.9076 3.567285 29.474806 -2.871232
2007-04-17 10:02:16 51°13.732 2°49.174 11.9113 3.567285 29.474806 -2.871232
2007-04-17 10:02:21 51°13.741 2°49.197 11.9206 3.567078 29.470045 -2.871232
2007-04-17 10:02:26 51°13.751 2°49.22 11.9081 3.567182 29.468134 -2.871232
2007-04-17 10:02:31 51°13.762 2°49.243 11.9078 3.567389 29.470034 -2.871232
2007-04-17 10:02:36 51°13.772 2°49.266 11.908 3.567596 29.472648 -2.871232
2007-04-17 10:02:41 51°13.782 2°49.289 11.9068 3.567492 29.470983 -2.871232
2007-04-17 10:02:46 51°13.792 2°49.312 11.8927 3.567492 29.470983 -2.871232
2007-04-17 10:02:51 51°13.802 2°49.335 11.8848 3.567492 29.469553 -2.871232
2007-04-17 10:02:56 51°13.812 2°49.358 11.8847 3.567389 29.466458 -2.871232
2007-04-17 10:03:01 51°13.822 2°49.381 11.8776 3.567492 29.468838 -2.871232
2007-04-17 10:03:06 51°13.832 2°49.404 11.8842 3.567389 29.469319 -2.871232
2007-04-17 10:03:11 51°13.842 2°49.427 11.8799 3.567285 29.469799 -2.871232
2007-04-17 10:03:17 51°13.854 2°49.454 11.8894 3.567285 29.469799 -2.871232
2007-04-17 10:03:21 51°13.862 2°49.472 11.8862 3.567285 29.474091 -2.871232
2007-04-17 10:03:26 51°13.872 2°49.495 11.8759 3.567182 29.478149 -2.871232
2007-04-17 10:03:31 51°13.882 2°49.518 11.8776 3.566975 29.479827 -2.871232
2007-04-17 10:03:36 51°13.892 2°49.541 11.8703 3.566768 29.48079 -2.871232
2007-04-17 10:03:41 51°13.902 2°49.563 11.8713 3.566457 29.479371 -2.871232
2007-04-17 10:03:46 51°13.912 2°49.586 11.8726 3.566457 29.479371 -2.871232
2007-04-17 10:03:51 51°13.922 2°49.608 11.8801 3.566457 29.480087 -2.871232
2007-04-17 10:03:56 51°13.932 2°49.631 11.8791 3.56625 29.478187 -2.871232
2007-04-17 10:04:01 51°13.942 2°49.653 11.8794 3.566146 29.4801 -2.871232
2007-04-17 10:04:06 51°13.951 2°49.676 11.8659 3.56625 29.483198 -2.871232
2007-04-17 10:04:11 51°13.961 2°49.699 11.8553 3.56625 29.485347 -2.871232
2007-04-17 10:04:16 51°13.971 2°49.722 11.8518 3.56625 29.485347 -2.871232
2007-04-17 10:04:21 51°13.981 2°49.744 11.8454 3.566146 29.485112 -2.871232
2007-04-17 10:04:26 51°13.991 2°49.767 11.8445 3.566146 29.482964 -2.871232
2007-04-17 10:04:31 51°14 2°49.789 11.8532 3.56625 29.483198 -2.871232
2007-04-17 10:04:36 51°14.01 2°49.812 11.8534 3.566457 29.486531 -2.871232
2007-04-17 10:04:41 51°14.02 2°49.835 11.8336 3.566561 29.493929 -2.871232
2007-04-17 10:04:46 51°14.03 2°49.858 11.8376 3.566561 29.493929 -2.871232
2007-04-17 10:04:51 51°14.039 2°49.881 11.8348 3.566457 29.497278 -2.871232
2007-04-17 10:04:56 51°14.049 2°49.904 11.8326 3.566147 29.500877 -2.871232
2007-04-17 10:05:01 51°14.059 2°49.927 11.8266 3.565836 29.500175 -2.871232
2007-04-17 10:05:06 51°14.069 2°49.949 11.8201 3.565525 29.498039 -2.871232
2007-04-17 10:05:11 51°14.079 2°49.973 11.83 3.565422 29.499239 -2.871232
2007-04-17 10:05:16 51°14.089 2°49.995 11.8161 3.565422 29.499239 -2.871232
2007-04-17 10:05:21 51°14.099 2°50.019 11.81 3.565214 29.50164 -2.871232
2007-04-17 10:05:26 51°14.109 2°50.041 11.8004 3.565007 29.502606 -2.871232
2007-04-17 10:05:31 51°14.119 2°50.065 11.8013 3.5648 29.50429 -2.871232
2007-04-17 10:05:36 51°14.129 2°50.088 11.7806 3.564179 29.500734 -2.871232
2007-04-17 10:05:41 51°14.139 2°50.111 11.783 3.56449 29.507176 -2.871232
2007-04-17 10:05:46 51°14.149 2°50.134 11.781 3.56449 29.507176 -2.871232
2007-04-17 10:05:51 51°14.158 2°50.157 11.7751 3.564075 29.505523 -2.871232
2007-04-17 10:05:56 51°14.168 2°50.18 11.7739 3.563454 29.504837 -2.871232
2007-04-17 10:06:01 51°14.178 2°50.203 11.7754 3.563661 29.513203 -2.871232
2007-04-17 10:06:06 51°14.188 2°50.227 11.7728 3.562833 29.512769 -2.871232
2007-04-17 10:06:11 51°14.198 2°50.25 11.7672 3.562936 29.520907 -2.871232
2007-04-17 10:06:16 51°14.208 2°50.273 11.7692 3.562936 29.520907 -2.871232
2007-04-17 10:06:21 51°14.218 2°50.296 11.7575 3.561694 29.514508 -2.871232
2007-04-17 10:06:26 51°14.228 2°50.32 11.761 3.562211 29.522146 -2.871232
2007-04-17 10:06:31 51°14.238 2°50.343 11.7735 3.561176 29.516933 -2.871232
2007-04-17 10:06:36 51°14.248 2°50.366 11.7767 3.561279 29.520043 -2.871232
2007-04-17 10:06:41 51°14.258 2°50.389 11.777 3.561487 29.523387 -2.871232
2007-04-17 10:06:46 51°14.268 2°50.412 11.7832 3.561487 29.523387 -2.871232
2007-04-17 10:06:51 51°14.278 2°50.435 11.7929 3.561279 29.523639 -2.871232
2007-04-17 10:06:56 51°14.288 2°50.458 11.803 3.561279 29.527236 -2.871232
2007-04-17 10:07:01 51°14.297 2°50.482 11.8143 3.560969 29.524377 -2.871232
2007-04-17 10:07:06 51°14.307 2°50.505 11.8112 3.560969 29.522219 -2.871232
2007-04-17 10:07:11 51°14.316 2°50.526 11.8165 3.560969 29.519342 -2.871232
2007-04-17 10:07:16 51°14.325 2°50.546 11.8227 3.560969 29.519342 -2.871232
2007-04-17 10:07:21 51°14.333 2°50.565 11.8298 3.561072 29.516699 -2.871232
2007-04-17 10:07:26 51°14.34 2°50.583 11.8367 3.561279 29.512135 -2.871232